GW1066 Weather Reports


time (UTC)temp
C
wind
direction
speed
KPH
gust
KPH
rain 1hr
cm
rain 24hr
cm
rain mn
cm
humidity
%
barometer
mb
20260506164303 24 170 0.0 1.6 0.00 0.00 0.00 31 1013.3
20260506164203 24 180 0.0 1.6 0.00 0.00 0.00 30 1013.4
20260506164103 24 180 0.0 1.6 0.00 0.00 0.00 30 1013.4
20260506164003 24 180 0.0 1.6 0.00 0.00 0.00 30 1013.3
20260506163903 24 180 0.0 1.6 0.00 0.00 0.00 30 1013.5
20260506163804 24 180 0.0 1.6 0.00 0.00 0.00 30 1013.5
20260506163703 24 180 0.0 1.6 0.00 0.00 0.00 30 1013.7
20260506163603 24 180 0.0 1.6 0.00 0.00 0.00 30 1013.5
20260506163524 24 180 0.0 1.6 0.00 0.00 0.00 31 1013.5
20260506163424 24 183 0.0 1.6 0.00 0.00 0.00 30 1013.4
20260506163324 25 192 0.0 3.2 0.00 0.00 0.00 30 1013.5
20260506163203 25 172 0.0 3.2 0.00 0.00 0.00 30 1013.4
20260506163103 25 172 0.0 3.2 0.00 0.00 0.00 30 1013.3
20260506163024 25 172 0.0 3.2 0.00 0.00 0.00 30 1013.2
20260506162924 25 168 0.0 3.2 0.00 0.00 0.00 29 1013.3
20260506162803 25 170 0.0 3.2 0.00 0.00 0.00 29 1013.4
20260506162724 25 168 0.0 3.2 0.00 0.00 0.00 29 1013.4
20260506162603 25 170 0.0 3.2 0.00 0.00 0.00 30 1013.4
20260506162504 25 170 0.0 3.2 0.00 0.00 0.00 29 1013.3
20260506162403 25 170 0.0 3.2 0.00 0.00 0.00 29 1013.4
20260506162306 25 175 0.0 3.2 0.00 0.00 0.00 29 1013.5
20260506162203 25 174 0.0 3.2 0.00 0.00 0.00 28 1013.4
20260506162124 25 173 0.0 4.8 0.00 0.00 0.00 29 1013.3
20260506162003 25 173 0.0 4.8 0.00 0.00 0.00 28 1013.5
20260506161903 25 174 0.0 4.8 0.00 0.00 0.00 28 1013.3
20260506161803 25 173 0.0 4.8 0.00 0.00 0.00 28 1013.2
20260506161724 25 175 0.0 4.8 0.00 0.00 0.00 28 1013.3
20260506161603 25 174 0.0 4.8 0.00 0.00 0.00 28 1013.7
20260506161503 25 173 0.0 4.8 0.00 0.00 0.00 28 1013.4
20260506161403 25 173 0.0 4.8 0.00 0.00 0.00 27 1013.4
20260506161303 25 169 0.0 4.8 0.00 0.00 0.00 28 1013.3
20260506161203 25 170 0.0 4.8 0.00 0.00 0.00 27 1013.5
20260506161103 25 173 0.0 1.6 0.00 0.00 0.00 27 1013.2
20260506161003 25 204 0.0 3.2 0.00 0.00 0.00 28 1013.3
20260506160903 25 204 0.0 3.2 0.00 0.00 0.00 27 1013.5
20260506160803 25 207 0.0 3.2 0.00 0.00 0.00 27 1013.4
20260506160703 25 207 0.0 3.2 0.00 0.00 0.00 27 1013.3
20260506160603 25 222 0.0 3.2 0.00 0.00 0.00 27 1013.5
20260506160525 25 222 0.0 3.2 0.00 0.00 0.00 27 1013.4
20260506160403 26 226 0.0 3.2 0.00 0.00 0.00 27 1013.4
20260506160303 26 228 0.0 3.2 0.00 0.00 0.00 27 1013.3
20260506160203 26 224 0.0 4.8 0.00 0.00 0.00 26 1013.5
20260506160103 26 217 0.0 4.8 0.00 0.00 0.00 26 1013.5
20260506160004 26 210 0.0 4.8 0.00 0.00 0.00 26 1013.4
20260506155924 26 210 0.0 4.8 0.00 0.00 0.00 26 1013.3
20260506155803 26 203 0.0 4.8 0.00 0.00 0.00 26 1013.5
20260506155703 26 195 0.0 4.8 0.00 0.00 0.00 26 1013.4
20260506155603 26 195 0.0 4.8 0.00 0.00 0.00 26 1013.5
20260506155503 26 194 0.0 4.8 0.00 0.00 0.00 26 1013.4
20260506155403 26 191 0.0 4.8 0.00 0.00 0.00 27 1013.4
20260506155306 26 191 0.0 4.8 0.00 0.00 0.00 26 1013.3
20260506155203 26 194 0.0 9.7 0.00 0.00 0.00 26 1013.3
20260506155124 26 195 0.0 9.7 0.00 0.00 0.00 26 1013.2
20260506155003 26 187 1.6 9.7 0.00 0.00 0.00 26 1013.6
20260506154903 26 184 1.6 9.7 0.00 0.00 0.00 26 1013.3
20260506154825 26 185 1.6 9.7 0.00 0.00 0.00 26 1013.3
20260506154703 26 184 1.6 9.7 0.00 0.00 0.00 26 1013.2
20260506154603 26 184 1.6 9.7 0.00 0.00 0.00 26 1013.4
20260506154503 26 184 1.6 9.7 0.00 0.00 0.00 26 1013.3
20260506154403 26 183 1.6 9.7 0.00 0.00 0.00 26 1013.4
20260506154303 26 184 1.6 9.7 0.00 0.00 0.00 25 1013.4
20260506154203 26 175 0.0 6.4 0.00 0.00 0.00 26 1013.2
20260506154103 26 171 0.0 6.4 0.00 0.00 0.00 26 1013.3
20260506154003 26 171 0.0 6.4 0.00 0.00 0.00 26 1013.3
20260506153903 26 177 0.0 4.8 0.00 0.00 0.00 25 1013.3
20260506153803 26 182 0.0 4.8 0.00 0.00 0.00 26 1013.4
20260506153703 26 184 0.0 3.2 0.00 0.00 0.00 26 1013.4
20260506153624 26 184 0.0 3.2 0.00 0.00 0.00 25 1013.2
20260506153503 26 184 0.0 3.2 0.00 0.00 0.00 25 1013.2
20260506153424 26 184 0.0 3.2 0.00 0.00 0.00 25 1013.4
20260506153324 26 184 0.0 3.2 0.00 0.00 0.00 25 1013.2
20260506153203 26 231 0.0 4.8 0.00 0.00 0.00 24 1013.3
20260506153103 26 226 0.0 6.4 0.00 0.00 0.00 25 1013.4
20260506153004 26 222 0.0 6.4 0.00 0.00 0.00 25 1013.4
20260506152903 26 212 0.0 9.7 0.00 0.00 0.00 25 1013.3
20260506152824 26 210 0.0 9.7 0.00 0.00 0.00 25 1013.2
20260506152704 26 210 0.0 9.7 0.00 0.00 0.00 25 1013.3
20260506152603 26 210 0.0 9.7 0.00 0.00 0.00 25 1013.5
20260506152503 26 206 0.0 9.7 0.00 0.00 0.00 25 1013.3
20260506152404 26 206 1.6 9.7 0.00 0.00 0.00 25 1013.4
20260506152305 26 204 1.6 9.7 0.00 0.00 0.00 25 1013.7
20260506152204 26 201 1.6 9.7 0.00 0.00 0.00 25 1013.3
20260506152103 26 196 1.6 9.7 0.00 0.00 0.00 25 1013.3
20260506152003 27 192 1.6 9.7 0.00 0.00 0.00 25 1013.5
20260506151904 27 191 1.6 9.7 0.00 0.00 0.00 25 1013.3
20260506151724 27 192 1.6 9.7 0.00 0.00 0.00 25 1013.4
20260506151603 27 192 1.6 9.7 0.00 0.00 0.00 25 1013.8
20260506151524 27 192 1.6 9.7 0.00 0.00 0.00 25 1013.5
20260506151403 27 192 0.0 9.7 0.00 0.00 0.00 24 1013.6
20260506151303 27 191 0.0 9.7 0.00 0.00 0.00 24 1013.6
20260506151203 27 197 1.6 9.7 0.00 0.00 0.00 24 1013.4
20260506151103 27 205 1.6 6.4 0.00 0.00 0.00 23 1013.5
20260506151003 27 210 0.0 6.4 0.00 0.00 0.00 23 1013.3
20260506150903 27 211 0.0 6.4 0.00 0.00 0.00 23 1013.7
20260506150803 27 209 0.0 6.4 0.00 0.00 0.00 23 1013.4
20260506150703 27 198 0.0 6.4 0.00 0.00 0.00 23 1013.5
20260506150603 27 194 1.6 6.4 0.00 0.00 0.00 23 1013.4
20260506150504 27 194 1.6 6.4 0.00 0.00 0.00 23 1013.5
20260506150424 27 194 1.6 6.4 0.00 0.00 0.00 23 1013.5
20260506150305 27 196 1.6 6.4 0.00 0.00 0.00 23 1013.4
20260506150203 27 181 0.0 6.4 0.00 0.00 0.00 22 1013.4
20260506150103 27 175 0.0 6.4 0.00 0.00 0.00 22 1013.6
20260506150004 27 176 0.0 6.4 0.00 0.00 0.00 22 1013.4
20260506145903 27 177 0.0 6.4 0.00 0.00 0.00 21 1013.6
20260506145825 27 176 0.0 6.4 0.00 0.00 0.00 22 1013.6
20260506145703 27 183 0.0 6.4 0.00 0.00 0.00 21 1013.5
20260506145603 27 186 0.0 6.4 0.00 0.00 0.00 21 1013.6
20260506145524 27 186 0.0 6.4 0.00 0.00 0.00 21 1013.6
20260506145403 27 186 0.0 6.4 0.00 0.00 0.00 21 1013.7
20260506145305 27 186 0.0 6.4 0.00 0.00 0.00 22 1013.6
20260506145203 27 192 0.0 6.4 0.00 0.00 0.00 22 1013.8
20260506145103 27 187 0.0 4.8 0.00 0.00 0.00 23 1013.4
20260506145024 27 187 0.0 4.8 0.00 0.00 0.00 22 1013.4
20260506144904 27 186 0.0 4.8 0.00 0.00 0.00 22 1013.5
20260506144824 27 188 0.0 9.7 0.00 0.00 0.00 22 1013.4
20260506144703 27 185 0.0 9.7 0.00 0.00 0.00 22 1013.6
20260506144603 27 186 0.0 9.7 0.00 0.00 0.00 21 1013.4
20260506144503 27 186 0.0 9.7 0.00 0.00 0.00 21 1013.6
20260506144403 27 181 0.0 9.7 0.00 0.00 0.00 22 1013.5
20260506144304 27 184 0.0 9.7 0.00 0.00 0.00 23 1013.4
20260506144224 27 184 0.0 9.7 0.00 0.00 0.00 23 1013.6
20260506144104 27 185 0.0 9.7 0.00 0.00 0.00 22 1013.5
20260506144003 27 187 0.0 9.7 0.00 0.00 0.00 21 1013.7
20260506143924 28 184 0.0 9.7 0.00 0.00 0.00 22 1013.7
20260506143803 28 175 1.6 6.4 0.00 0.00 0.00 22 1013.5
20260506143724 28 176 0.0 6.4 0.00 0.00 0.00 22 1013.8
20260506143604 28 175 1.6 6.4 0.00 0.00 0.00 21 1013.6
20260506143503 28 174 1.6 6.4 0.00 0.00 0.00 23 1013.7
20260506143403 28 175 1.6 6.4 0.00 0.00 0.00 22 1013.7
20260506143303 28 171 0.0 6.4 0.00 0.00 0.00 21 1013.8
20260506143203 28 171 0.0 6.4 0.00 0.00 0.00 22 1013.8
20260506143103 28 171 0.0 6.4 0.00 0.00 0.00 21 1013.7
20260506143024 28 166 0.0 6.4 0.00 0.00 0.00 23 1013.7
20260506142924 28 165 0.0 6.4 0.00 0.00 0.00 21 1013.5
20260506142803 28 176 0.0 4.8 0.00 0.00 0.00 22 1013.5
20260506142703 28 178 0.0 4.8 0.00 0.00 0.00 21 1013.8
20260506142603 28 185 0.0 3.2 0.00 0.00 0.00 20 1013.4
20260506142503 28 185 0.0 3.2 0.00 0.00 0.00 20 1013.4
20260506142403 28 181 0.0 4.8 0.00 0.00 0.00 20 1013.5
20260506142306 28 181 0.0 4.8 0.00 0.00 0.00 20 1013.5
20260506142203 28 187 0.0 4.8 0.00 0.00 0.00 20 1013.5
20260506142103 28 190 0.0 4.8 0.00 0.00 0.00 20 1013.7
20260506142003 28 191 0.0 4.8 0.00 0.00 0.00 21 1013.7
20260506141924 28 191 0.0 4.8 0.00 0.00 0.00 21 1013.7
20260506141803 28 194 0.0 4.8 0.00 0.00 0.00 21 1013.7
20260506141703 28 195 0.0 4.8 0.00 0.00 0.00 22 1013.5
20260506141624 28 196 0.0 4.8 0.00 0.00 0.00 21 1013.8
20260506141503 28 196 0.0 4.8 0.00 0.00 0.00 21 1013.4
20260506141404 28 207 1.6 6.4 0.00 0.00 0.00 22 1013.7
20260506141303 28 208 1.6 6.4 0.00 0.00 0.00 21 1013.5
20260506141203 28 207 0.0 6.4 0.00 0.00 0.00 22 1013.7
20260506141103 28 210 0.0 6.4 0.00 0.00 0.00 21 1013.7
20260506141003 28 208 0.0 6.4 0.00 0.00 0.00 21 1013.8
20260506140903 28 214 0.0 6.4 0.00 0.00 0.00 22 1013.7
20260506140803 28 214 0.0 6.4 0.00 0.00 0.00 21 1013.6
20260506140724 28 212 0.0 6.4 0.00 0.00 0.00 21 1013.6
20260506140603 28 197 1.6 6.4 0.00 0.00 0.00 21 1013.6
20260506140503 28 189 1.6 6.4 0.00 0.00 0.00 22 1013.7
20260506140403 28 182 1.6 6.4 0.00 0.00 0.00 21 1013.7
20260506140303 28 177 0.0 6.4 0.00 0.00 0.00 22 1013.7
20260506140224 28 173 1.6 6.4 0.00 0.00 0.00 22 1013.7
20260506140103 28 172 1.6 6.4 0.00 0.00 0.00 21 1013.6
20260506140004 28 169 1.6 4.8 0.00 0.00 0.00 21 1013.8
20260506135903 28 173 1.6 4.8 0.00 0.00 0.00 21 1013.7
20260506135803 28 172 1.6 4.8 0.00 0.00 0.00 21 1013.7
20260506135703 28 172 1.6 4.8 0.00 0.00 0.00 21 1013.7
20260506135624 28 174 1.6 4.8 0.00 0.00 0.00 21 1013.5
20260506135503 28 183 0.0 4.8 0.00 0.00 0.00 21 1013.5
20260506135404 28 187 0.0 4.8 0.00 0.00 0.00 21 1013.7
20260506135306 28 188 1.6 4.8 0.00 0.00 0.00 21 1013.5
20260506135203 28 193 1.6 4.8 0.00 0.00 0.00 21 1013.8
20260506135103 28 197 1.6 4.8 0.00 0.00 0.00 22 1013.7
20260506135003 28 198 1.6 4.8 0.00 0.00 0.00 22 1013.8
20260506134903 28 196 0.0 4.8 0.00 0.00 0.00 22 1013.9
20260506134824 28 197 0.0 4.8 0.00 0.00 0.00 21 1013.8
20260506134703 28 199 1.6 4.8 0.00 0.00 0.00 23 1013.8
20260506134603 28 198 1.6 6.4 0.00 0.00 0.00 22 1013.7
20260506134504 28 197 1.6 6.4 0.00 0.00 0.00 22 1013.7
20260506134403 28 196 1.6 6.4 0.00 0.00 0.00 22 1013.6
20260506134303 28 197 1.6 6.4 0.00 0.00 0.00 22 1013.8
20260506134203 28 197 1.6 6.4 0.00 0.00 0.00 21 1013.7
20260506134103 28 194 1.6 6.4 0.00 0.00 0.00 22 1013.6
20260506134003 28 192 1.6 6.4 0.00 0.00 0.00 21 1013.7
20260506133903 28 192 1.6 6.4 0.00 0.00 0.00 23 1013.8
20260506133803 28 192 1.6 6.4 0.00 0.00 0.00 22 1013.8
20260506133703 28 197 1.6 11.3 0.00 0.00 0.00 21 1013.6
20260506133603 28 197 1.6 11.3 0.00 0.00 0.00 22 1013.7
20260506133503 28 186 1.6 11.3 0.00 0.00 0.00 22 1013.6
20260506133403 28 186 1.6 11.3 0.00 0.00 0.00 22 1013.6
20260506133303 28 185 1.6 11.3 0.00 0.00 0.00 22 1013.7
20260506133203 28 185 1.6 11.3 0.00 0.00 0.00 22 1013.8
20260506133104 28 182 1.6 11.3 0.00 0.00 0.00 22 1013.9
20260506133003 28 185 1.6 11.3 0.00 0.00 0.00 22 1013.9
20260506132903 28 186 1.6 11.3 0.00 0.00 0.00 23 1013.7
20260506132803 28 186 1.6 11.3 0.00 0.00 0.00 23 1013.8
20260506132703 28 182 1.6 11.3 0.00 0.00 0.00 22 1013.9
20260506132603 28 181 1.6 11.3 0.00 0.00 0.00 23 1014.0
20260506132503 28 188 1.6 6.4 0.00 0.00 0.00 22 1013.8
20260506132403 28 187 1.6 6.4 0.00 0.00 0.00 22 1013.8
20260506132306 28 192 1.6 9.7 0.00 0.00 0.00 22 1013.7
20260506132203 28 188 1.6 11.3 0.00 0.00 0.00 22 1013.8
20260506132103 28 192 1.6 11.3 0.00 0.00 0.00 23 1013.7
20260506132003 28 196 1.6 12.9 0.00 0.00 0.00 23 1013.6
20260506131904 28 195 1.6 12.9 0.00 0.00 0.00 24 1013.8
20260506131824 28 195 1.6 12.9 0.00 0.00 0.00 22 1013.7
20260506131703 28 196 1.6 12.9 0.00 0.00 0.00 22 1013.8
20260506131603 28 196 1.6 12.9 0.00 0.00 0.00 22 1013.8
20260506131503 28 197 1.6 12.9 0.00 0.00 0.00 22 1013.7
20260506131403 28 199 1.6 12.9 0.00 0.00 0.00 22 1013.9
20260506131303 28 198 1.6 12.9 0.00 0.00 0.00 23 1013.7
20260506131203 28 202 1.6 12.9 0.00 0.00 0.00 22 1013.8
20260506131103 28 199 1.6 12.9 0.00 0.00 0.00 23 1013.8
20260506131003 28 192 0.0 9.7 0.00 0.00 0.00 22 1013.8
20260506130905 28 188 0.0 4.8 0.00 0.00 0.00 23 1013.9
20260506130824 28 188 0.0 4.8 0.00 0.00 0.00 23 1013.7
20260506130724 28 188 0.0 4.8 0.00 0.00 0.00 21 1013.8
20260506130603 28 193 0.0 9.7 0.00 0.00 0.00 22 1013.9
20260506130503 28 193 0.0 9.7 0.00 0.00 0.00 23 1013.9
20260506130403 28 194 0.0 9.7 0.00 0.00 0.00 23 1013.9
20260506130324 28 198 0.0 9.7 0.00 0.00 0.00 22 1013.9
20260506130203 28 197 0.0 9.7 0.00 0.00 0.00 23 1013.9
20260506130103 28 200 0.0 9.7 0.00 0.00 0.00 22 1014.0
20260506130004 28 193 1.6 9.7 0.00 0.00 0.00 22 1013.8
20260506125903 28 190 1.6 9.7 0.00 0.00 0.00 23 1014.0
20260506125824 28 192 1.6 12.9 0.00 0.00 0.00 22 1014.0
20260506125703 28 190 1.6 12.9 0.00 0.00 0.00 21 1013.9
20260506125603 28 190 1.6 12.9 0.00 0.00 0.00 21 1014.0
20260506125503 28 191 1.6 12.9 0.00 0.00 0.00 21 1014.0
20260506125403 28 196 1.6 12.9 0.00 0.00 0.00 21 1014.0
20260506125305 28 198 3.2 12.9 0.00 0.00 0.00 21 1014.1
20260506125224 28 198 3.2 12.9 0.00 0.00 0.00 22 1014.0
20260506125103 28 201 3.2 12.9 0.00 0.00 0.00 22 1014.1
20260506125003 28 204 3.2 12.9 0.00 0.00 0.00 21 1014.2
20260506124903 27 208 3.2 12.9 0.00 0.00 0.00 22 1014.0
20260506124803 27 212 1.6 9.7 0.00 0.00 0.00 23 1014.2
20260506124703 27 214 1.6 9.7 0.00 0.00 0.00 22 1014.2
20260506124603 27 213 1.6 9.7 0.00 0.00 0.00 22 1014.0
20260506124524 27 214 3.2 9.7 0.00 0.00 0.00 23 1014.1
20260506124403 28 210 1.6 9.7 0.00 0.00 0.00 22 1014.1
20260506124303 28 210 1.6 9.7 0.00 0.00 0.00 23 1014.2
20260506124224 28 212 1.6 9.7 0.00 0.00 0.00 23 1013.9
20260506124103 27 211 1.6 9.7 0.00 0.00 0.00 24 1014.1
20260506124004 27 210 1.6 9.7 0.00 0.00 0.00 23 1014.0
20260506123904 27 211 1.6 9.7 0.00 0.00 0.00 23 1013.9
20260506123804 27 210 1.6 9.7 0.00 0.00 0.00 23 1013.9
20260506123725 27 209 1.6 9.7 0.00 0.00 0.00 23 1014.0
20260506123604 28 210 1.6 9.7 0.00 0.00 0.00 22 1014.1
20260506123503 28 208 1.6 9.7 0.00 0.00 0.00 21 1014.2
20260506123404 28 212 1.6 9.7 0.00 0.00 0.00 22 1014.0
20260506123325 28 210 1.6 9.7 0.00 0.00 0.00 23 1014.1
20260506123225 28 206 1.6 9.7 0.00 0.00 0.00 23 1014.1
20260506123104 29 204 0.0 6.4 0.00 0.00 0.00 23 1014.2
20260506123030 29 216 1.6 6.4 0.00 0.00 0.00 22 1014.0
20260506122904 28 211 1.6 9.7 0.00 0.00 0.00 23 1014.0
20260506122803 28 208 1.6 9.7 0.00 0.00 0.00 22 1014.3
20260506122703 28 207 1.6 9.7 0.00 0.00 0.00 23 1014.3
20260506122605 28 204 1.6 9.7 0.00 0.00 0.00 22 1014.2
20260506122205 28 205 1.6 9.7 0.00 0.00 0.00 22 1014.3
20260506122103 28 204 1.6 9.7 0.00 0.00 0.00 22 1014.3
20260506122003 28 198 1.6 9.7 0.00 0.00 0.00 22 1014.1
20260506121903 28 196 0.0 6.4 0.00 0.00 0.00 21 1014.3
20260506121803 28 197 0.0 6.4 0.00 0.00 0.00 21 1014.6
20260506121703 28 197 0.0 6.4 0.00 0.00 0.00 23 1014.3
20260506121603 28 199 0.0 6.4 0.00 0.00 0.00 22 1014.3
20260506121503 28 195 0.0 6.4 0.00 0.00 0.00 23 1014.2
20260506121403 28 188 0.0 6.4 0.00 0.00 0.00 22 1014.6
20260506121324 28 178 0.0 6.4 0.00 0.00 0.00 23 1014.2
20260506121203 28 177 0.0 6.4 0.00 0.00 0.00 22 1014.3
20260506121103 28 177 0.0 6.4 0.00 0.00 0.00 23 1014.1
20260506121024 28 178 0.0 6.4 0.00 0.00 0.00 23 1014.4
20260506120924 28 176 0.0 6.4 0.00 0.00 0.00 22 1014.4
20260506120803 28 171 0.0 6.4 0.00 0.00 0.00 22 1014.6
20260506120703 28 173 0.0 6.4 0.00 0.00 0.00 22 1014.4
20260506120603 28 176 0.0 6.4 0.00 0.00 0.00 22 1014.4
20260506120503 28 176 0.0 6.4 0.00 0.00 0.00 22 1014.6
20260506120403 28 180 0.0 4.8 0.00 0.00 0.00 23 1014.6
20260506120303 28 180 0.0 4.8 0.00 0.00 0.00 22 1014.6
20260506120203 28 181 1.6 9.7 0.00 0.00 0.00 23 1014.6
20260506120103 28 178 1.6 9.7 0.00 0.00 0.00 22 1014.6
20260506120003 28 177 1.6 9.7 0.00 0.00 0.00 22 1014.4
20260506115903 28 177 1.6 9.7 0.00 0.00 0.00 22 1014.4
20260506115803 28 176 1.6 9.7 0.00 0.00 0.00 21 1014.4
20260506115703 28 174 1.6 9.7 0.00 0.00 0.00 23 1014.6
20260506115603 28 172 1.6 9.7 0.00 0.00 0.00 21 1014.3
20260506115503 28 171 1.6 9.7 0.00 0.00 0.00 22 1014.4
20260506115403 28 171 1.6 9.7 0.00 0.00 0.00 22 1014.3
20260506115306 28 170 1.6 9.7 0.00 0.00 0.00 23 1014.7
20260506115203 28 173 1.6 9.7 0.00 0.00 0.00 22 1014.6
20260506115103 28 179 1.6 9.7 0.00 0.00 0.00 21 1014.6
20260506115003 28 180 1.6 9.7 0.00 0.00 0.00 22 1014.7
20260506114903 28 181 1.6 9.7 0.00 0.00 0.00 22 1014.4
20260506114803 28 182 1.6 9.7 0.00 0.00 0.00 22 1014.4
20260506114703 28 184 1.6 9.7 0.00 0.00 0.00 22 1014.6
20260506114603 28 184 1.6 9.7 0.00 0.00 0.00 23 1014.9
20260506114503 28 188 1.6 9.7 0.00 0.00 0.00 22 1014.7
20260506114403 28 195 0.0 6.4 0.00 0.00 0.00 23 1014.7
20260506114303 28 201 0.0 6.4 0.00 0.00 0.00 23 1014.8
20260506114203 29 193 0.0 6.4 0.00 0.00 0.00 21 1014.3
20260506114103 29 172 0.0 4.8 0.00 0.00 0.00 23 1014.4
20260506114024 29 176 0.0 3.2 0.00 0.00 0.00 23 1014.6
20260506113904 29 186 0.0 3.2 0.00 0.00 0.00 21 1014.7
20260506113803 29 186 0.0 3.2 0.00 0.00 0.00 22 1014.8
20260506113724 28 186 0.0 3.2 0.00 0.00 0.00 21 1014.8
20260506113603 28 191 0.0 3.2 0.00 0.00 0.00 22 1014.8
20260506113503 28 191 0.0 3.2 0.00 0.00 0.00 23 1014.7
20260506113424 28 191 0.0 3.2 0.00 0.00 0.00 23 1014.7
20260506113303 28 194 0.0 3.2 0.00 0.00 0.00 22 1014.9
20260506113224 28 195 0.0 4.8 0.00 0.00 0.00 23 1014.8
20260506113103 28 181 1.6 11.3 0.00 0.00 0.00 22 1014.6
20260506113003 28 176 1.6 11.3 0.00 0.00 0.00 22 1014.9
20260506112903 28 173 1.6 11.3 0.00 0.00 0.00 22 1014.8
20260506112803 28 170 1.6 11.3 0.00 0.00 0.00 22 1014.9
20260506112703 28 170 1.6 11.3 0.00 0.00 0.00 22 1014.7
20260506112603 28 170 1.6 11.3 0.00 0.00 0.00 22 1015.0
20260506112503 28 170 1.6 11.3 0.00 0.00 0.00 24 1014.8
20260506112403 28 169 1.6 11.3 0.00 0.00 0.00 23 1014.9
20260506112305 28 169 1.6 11.3 0.00 0.00 0.00 23 1015.0
20260506112203 28 165 1.6 11.3 0.00 0.00 0.00 22 1014.8
20260506112103 28 168 0.0 9.7 0.00 0.00 0.00 23 1015.0
20260506112003 28 170 0.0 9.7 0.00 0.00 0.00 24 1014.9
20260506111903 28 171 0.0 9.7 0.00 0.00 0.00 24 1014.9
20260506111803 28 183 0.0 4.8 0.00 0.00 0.00 24 1014.8
20260506111703 28 194 1.6 9.7 0.00 0.00 0.00 23 1014.8
20260506111624 28 194 1.6 9.7 0.00 0.00 0.00 24 1014.4
20260506111503 28 196 1.6 9.7 0.00 0.00 0.00 24 1015.1
20260506111403 28 201 1.6 9.7 0.00 0.00 0.00 23 1014.8
20260506111303 28 202 1.6 9.7 0.00 0.00 0.00 24 1015.0
20260506111203 27 202 1.6 9.7 0.00 0.00 0.00 23 1015.0
20260506111103 27 206 1.6 9.7 0.00 0.00 0.00 23 1014.8
20260506111003 27 203 1.6 9.7 0.00 0.00 0.00 25 1014.8
20260506110903 27 205 1.6 11.3 0.00 0.00 0.00 24 1014.8
20260506110803 27 206 1.6 11.3 0.00 0.00 0.00 24 1015.1
20260506110703 27 206 1.6 11.3 0.00 0.00 0.00 24 1014.9
20260506110603 27 204 1.6 11.3 0.00 0.00 0.00 23 1014.9
20260506110503 27 203 1.6 11.3 0.00 0.00 0.00 24 1015.0
20260506110403 27 197 1.6 11.3 0.00 0.00 0.00 24 1015.0
20260506110303 27 195 1.6 11.3 0.00 0.00 0.00 24 1014.9
20260506110203 27 197 1.6 11.3 0.00 0.00 0.00 24 1015.0
20260506110103 27 203 1.6 11.3 0.00 0.00 0.00 23 1015.0
20260506110004 27 205 1.6 11.3 0.00 0.00 0.00 24 1015.0
20260506105903 27 206 1.6 9.7 0.00 0.00 0.00 24 1014.9
20260506105803 27 206 1.6 9.7 0.00 0.00 0.00 25 1015.0
20260506105703 27 205 3.2 9.7 0.00 0.00 0.00 25 1015.3
20260506105603 27 207 3.2 11.3 0.00 0.00 0.00 24 1015.0
20260506105503 27 210 3.2 11.3 0.00 0.00 0.00 25 1015.1
20260506105424 27 210 3.2 11.3 0.00 0.00 0.00 24 1015.1
20260506105305 27 217 3.2 12.9 0.00 0.00 0.00 24 1015.2
20260506105203 27 218 3.2 12.9 0.00 0.00 0.00 24 1015.1
20260506105103 27 216 3.2 12.9 0.00 0.00 0.00 25 1015.1
20260506105003 26 215 3.2 12.9 0.00 0.00 0.00 26 1015.1
20260506104903 26 211 3.2 12.9 0.00 0.00 0.00 26 1015.1
20260506104803 27 211 3.2 12.9 0.00 0.00 0.00 25 1015.2
20260506104703 27 212 3.2 12.9 0.00 0.00 0.00 25 1015.0
20260506104624 27 211 1.6 12.9 0.00 0.00 0.00 25 1015.0
20260506104503 27 206 1.6 12.9 0.00 0.00 0.00 24 1015.0
20260506104403 28 194 1.6 9.7 0.00 0.00 0.00 24 1015.1
20260506104303 28 185 1.6 9.7 0.00 0.00 0.00 25 1015.1
20260506104203 28 179 0.0 9.7 0.00 0.00 0.00 25 1015.0
20260506104124 28 180 0.0 9.7 0.00 0.00 0.00 25 1015.1
20260506104003 28 176 1.6 9.7 0.00 0.00 0.00 24 1015.2
20260506103903 27 172 1.6 9.7 0.00 0.00 0.00 26 1015.0
20260506103803 27 172 1.6 9.7 0.00 0.00 0.00 25 1015.0
20260506103703 27 172 0.0 9.7 0.00 0.00 0.00 24 1015.2
20260506103624 27 172 1.6 9.7 0.00 0.00 0.00 25 1015.3
20260506103503 27 172 1.6 9.7 0.00 0.00 0.00 25 1015.0
20260506103403 27 170 1.6 11.3 0.00 0.00 0.00 25 1015.0
20260506103303 27 171 1.6 11.3 0.00 0.00 0.00 26 1015.4
20260506103224 27 168 1.6 11.3 0.00 0.00 0.00 25 1015.3
20260506103125 27 170 1.6 11.3 0.00 0.00 0.00 26 1015.2
20260506103003 27 172 1.6 11.3 0.00 0.00 0.00 25 1014.9
20260506102903 27 173 1.6 11.3 0.00 0.00 0.00 25 1015.2
20260506102803 27 175 1.6 11.3 0.00 0.00 0.00 26 1015.2
20260506102704 27 184 3.2 11.3 0.00 0.00 0.00 25 1015.0
20260506102624 27 185 1.6 11.3 0.00 0.00 0.00 25 1015.2
20260506102503 27 187 1.6 11.3 0.00 0.00 0.00 25 1015.3
20260506102403 27 194 1.6 9.7 0.00 0.00 0.00 25 1015.2
20260506102305 27 197 1.6 9.7 0.00 0.00 0.00 26 1015.4
20260506102203 27 201 1.6 9.7 0.00 0.00 0.00 26 1015.3
20260506102103 27 203 1.6 9.7 0.00 0.00 0.00 25 1015.2
20260506102024 27 205 1.6 9.7 0.00 0.00 0.00 25 1015.0
20260506101903 27 209 1.6 9.7 0.00 0.00 0.00 27 1015.2
20260506101803 27 208 1.6 9.7 0.00 0.00 0.00 25 1015.2
20260506101703 27 199 0.0 4.8 0.00 0.00 0.00 25 1015.4
20260506101624 27 199 0.0 4.8 0.00 0.00 0.00 25 1015.4
20260506101503 27 206 1.6 6.4 0.00 0.00 0.00 26 1015.3
20260506101403 27 204 1.6 6.4 0.00 0.00 0.00 25 1015.4
20260506101303 27 204 1.6 9.7 0.00 0.00 0.00 26 1015.2
20260506101203 27 202 1.6 9.7 0.00 0.00 0.00 25 1015.2
20260506101103 27 202 1.6 9.7 0.00 0.00 0.00 27 1015.3
20260506101003 27 203 1.6 9.7 0.00 0.00 0.00 26 1015.1
20260506100903 27 200 1.6 9.7 0.00 0.00 0.00 27 1015.3
20260506100803 27 204 1.6 9.7 0.00 0.00 0.00 26 1015.1
20260506100703 27 204 1.6 9.7 0.00 0.00 0.00 26 1015.1
20260506100603 26 204 1.6 9.7 0.00 0.00 0.00 26 1015.3
20260506100503 26 201 1.6 9.7 0.00 0.00 0.00 28 1015.1
20260506100403 26 203 1.6 9.7 0.00 0.00 0.00 27 1015.3
20260506100303 26 199 1.6 9.7 0.00 0.00 0.00 28 1015.3
20260506100203 26 204 3.2 9.7 0.00 0.00 0.00 27 1015.3
20260506100103 26 211 3.2 9.7 0.00 0.00 0.00 28 1015.3
20260506100004 26 211 3.2 9.7 0.00 0.00 0.00 28 1015.3
20260506095924 26 214 1.6 9.7 0.00 0.00 0.00 27 1015.2
20260506095803 26 206 1.6 9.7 0.00 0.00 0.00 28 1015.2
20260506095703 26 208 1.6 9.7 0.00 0.00 0.00 29 1015.2
20260506095603 26 208 1.6 9.7 0.00 0.00 0.00 28 1015.4
20260506095503 26 206 1.6 9.7 0.00 0.00 0.00 28 1015.4
20260506095403 26 206 1.6 9.7 0.00 0.00 0.00 28 1015.3
20260506095305 26 210 1.6 9.7 0.00 0.00 0.00 29 1015.3
20260506095203 26 205 1.6 9.7 0.00 0.00 0.00 28 1015.2
20260506095103 26 198 1.6 9.7 0.00 0.00 0.00 28 1015.4
20260506095003 26 201 1.6 9.7 0.00 0.00 0.00 27 1015.5
20260506094924 26 208 1.6 9.7 0.00 0.00 0.00 28 1015.4
20260506094803 26 217 1.6 11.3 0.00 0.00 0.00 28 1015.4
20260506094703 26 208 1.6 11.3 0.00 0.00 0.00 28 1015.5
20260506094624 26 208 1.6 11.3 0.00 0.00 0.00 29 1015.3
20260506094504 26 206 1.6 11.3 0.00 0.00 0.00 29 1015.5
20260506094403 26 204 1.6 11.3 0.00 0.00 0.00 29 1015.4
20260506094303 26 205 1.6 11.3 0.00 0.00 0.00 30 1015.4
20260506094203 26 213 1.6 11.3 0.00 0.00 0.00 28 1015.2
20260506094124 26 208 1.6 11.3 0.00 0.00 0.00 28 1015.4
20260506094003 26 205 1.6 11.3 0.00 0.00 0.00 28 1015.4
20260506093903 26 203 1.6 11.3 0.00 0.00 0.00 28 1015.3
20260506093803 26 199 1.6 9.7 0.00 0.00 0.00 29 1015.5
20260506093703 26 202 1.6 12.9 0.00 0.00 0.00 28 1015.3
20260506093603 26 202 1.6 12.9 0.00 0.00 0.00 29 1015.4
20260506093503 25 200 1.6 12.9 0.00 0.00 0.00 29 1015.4
20260506093403 25 201 1.6 12.9 0.00 0.00 0.00 30 1015.4
20260506093303 26 200 1.6 12.9 0.00 0.00 0.00 29 1015.5
20260506093203 26 196 1.6 12.9 0.00 0.00 0.00 28 1015.5
20260506093103 26 192 1.6 12.9 0.00 0.00 0.00 29 1015.3
20260506093003 26 184 1.6 12.9 0.00 0.00 0.00 29 1015.4
20260506092903 26 177 1.6 12.9 0.00 0.00 0.00 28 1015.6
20260506092824 26 177 1.6 12.9 0.00 0.00 0.00 29 1015.6
20260506092703 26 174 0.0 6.4 0.00 0.00 0.00 29 1015.3
20260506092603 26 173 0.0 6.4 0.00 0.00 0.00 29 1015.6
20260506092503 26 182 1.6 9.7 0.00 0.00 0.00 29 1015.3
20260506092403 26 187 1.6 9.7 0.00 0.00 0.00 30 1015.4
20260506092305 26 187 1.6 9.7 0.00 0.00 0.00 30 1015.5
20260506092203 26 193 1.6 9.7 0.00 0.00 0.00 30 1015.6
20260506092103 26 194 1.6 9.7 0.00 0.00 0.00 30 1015.6
20260506092003 26 200 1.6 9.7 0.00 0.00 0.00 30 1015.5
20260506091903 26 201 1.6 9.7 0.00 0.00 0.00 30 1015.5
20260506091803 26 203 1.6 9.7 0.00 0.00 0.00 29 1015.5
20260506091703 26 201 1.6 9.7 0.00 0.00 0.00 31 1015.6
20260506091603 26 197 1.6 9.7 0.00 0.00 0.00 31 1015.7
20260506091503 26 196 1.6 9.7 0.00 0.00 0.00 30 1015.6
20260506091403 26 193 1.6 9.7 0.00 0.00 0.00 32 1015.5
20260506091303 26 186 1.6 9.7 0.00 0.00 0.00 30 1015.6
20260506091203 26 174 1.6 9.7 0.00 0.00 0.00 31 1015.4
20260506091124 26 173 1.6 9.7 0.00 0.00 0.00 31 1015.7
20260506091003 26 173 1.6 11.3 0.00 0.00 0.00 31 1015.6
20260506090903 25 170 1.6 11.3 0.00 0.00 0.00 32 1015.6
20260506090803 25 168 1.6 11.3 0.00 0.00 0.00 31 1015.5
20260506090703 25 167 1.6 11.3 0.00 0.00 0.00 31 1015.5
20260506090603 25 167 1.6 11.3 0.00 0.00 0.00 31 1015.6
20260506090503 25 166 1.6 11.3 0.00 0.00 0.00 32 1015.7
20260506090403 25 167 1.6 11.3 0.00 0.00 0.00 32 1015.6
20260506090303 25 167 1.6 11.3 0.00 0.00 0.00 32 1015.8
20260506090203 25 171 1.6 11.3 0.00 0.00 0.00 31 1015.6
20260506090103 25 171 1.6 11.3 0.00 0.00 0.00 32 1015.6
20260506090024 25 183 1.6 11.3 0.00 0.00 0.00 32 1015.5
20260506085903 25 192 1.6 11.3 0.00 0.00 0.00 31 1015.4
20260506085803 25 193 1.6 11.3 0.00 0.00 0.00 32 1015.4
20260506085703 25 186 1.6 11.3 0.00 0.00 0.00 31 1015.6
20260506085603 25 188 1.6 11.3 0.00 0.00 0.00 32 1015.7
20260506085503 25 196 1.6 11.3 0.00 0.00 0.00 32 1015.5
20260506085424 25 203 1.6 9.7 0.00 0.00 0.00 32 1015.5
20260506085305 25 201 1.6 9.7 0.00 0.00 0.00 33 1015.6
20260506085224 25 203 1.6 9.7 0.00 0.00 0.00 32 1015.5
20260506085103 25 203 1.6 9.7 0.00 0.00 0.00 32 1015.6
20260506085003 25 194 1.6 9.7 0.00 0.00 0.00 33 1015.5
20260506084903 25 194 1.6 9.7 0.00 0.00 0.00 32 1015.7
20260506084803 25 193 1.6 9.7 0.00 0.00 0.00 34 1015.6
20260506084703 24 197 1.6 9.7 0.00 0.00 0.00 33 1015.5
20260506084603 24 196 1.6 9.7 0.00 0.00 0.00 33 1015.6
20260506084503 25 194 1.6 9.7 0.00 0.00 0.00 34 1015.4
20260506084424 25 189 1.6 9.7 0.00 0.00 0.00 33 1015.4
20260506084303 25 186 1.6 9.7 0.00 0.00 0.00 32 1015.7
20260506084203 25 183 1.6 9.7 0.00 0.00 0.00 33 1015.6
20260506084103 25 183 1.6 9.7 0.00 0.00 0.00 33 1015.5
20260506084003 25 184 1.6 9.7 0.00 0.00 0.00 33 1015.5
20260506083924 25 184 1.6 9.7 0.00 0.00 0.00 32 1015.5
20260506083803 25 174 1.6 6.4 0.00 0.00 0.00 32 1015.6
20260506083703 25 176 1.6 9.7 0.00 0.00 0.00 34 1015.7
20260506083603 25 180 1.6 9.7 0.00 0.00 0.00 34 1015.5
20260506083503 25 178 1.6 11.3 0.00 0.00 0.00 35 1015.7
20260506083403 24 180 1.6 11.3 0.00 0.00 0.00 34 1015.6
20260506083324 24 181 1.6 11.3 0.00 0.00 0.00 35 1015.6
20260506083203 24 179 1.6 11.3 0.00 0.00 0.00 35 1015.4
20260506083103 24 179 1.6 11.3 0.00 0.00 0.00 35 1015.6
20260506083003 24 178 1.6 11.3 0.00 0.00 0.00 35 1015.6
20260506082903 23 179 1.6 11.3 0.00 0.00 0.00 35 1015.7
20260506082803 23 181 1.6 11.3 0.00 0.00 0.00 36 1015.7
20260506082703 24 178 1.6 11.3 0.00 0.00 0.00 36 1015.6
20260506082603 24 174 1.6 11.3 0.00 0.00 0.00 35 1015.4
20260506082503 24 174 1.6 6.4 0.00 0.00 0.00 35 1015.3
20260506082403 24 171 1.6 6.4 0.00 0.00 0.00 35 1015.8
20260506082305 24 169 0.0 6.4 0.00 0.00 0.00 35 1015.6
20260506082203 24 168 1.6 6.4 0.00 0.00 0.00 36 1015.6
20260506082103 24 169 1.6 9.7 0.00 0.00 0.00 35 1015.6
20260506082003 24 169 1.6 9.7 0.00 0.00 0.00 36 1015.5
20260506081924 24 170 1.6 9.7 0.00 0.00 0.00 35 1015.8
20260506081803 24 165 1.6 9.7 0.00 0.00 0.00 35 1015.6
20260506081724 24 164 1.6 9.7 0.00 0.00 0.00 35 1015.6
20260506081603 24 170 1.6 9.7 0.00 0.00 0.00 35 1015.7
20260506081503 23 171 1.6 9.7 0.00 0.00 0.00 37 1015.6
20260506081403 23 170 1.6 9.7 0.00 0.00 0.00 36 1015.6
20260506081303 23 169 1.6 9.7 0.00 0.00 0.00 37 1015.6
20260506081203 23 169 1.6 9.7 0.00 0.00 0.00 36 1015.8
20260506081103 23 167 1.6 9.7 0.00 0.00 0.00 36 1015.7
20260506081003 23 167 1.6 9.7 0.00 0.00 0.00 37 1015.7
20260506080903 23 170 1.6 9.7 0.00 0.00 0.00 37 1015.7
20260506080804 23 171 1.6 9.7 0.00 0.00 0.00 36 1015.7
20260506080703 23 174 1.6 9.7 0.00 0.00 0.00 37 1015.7
20260506080603 23 170 1.6 9.7 0.00 0.00 0.00 36 1015.6
20260506080503 23 173 1.6 9.7 0.00 0.00 0.00 37 1015.8
20260506080403 23 179 1.6 6.4 0.00 0.00 0.00 37 1015.7
20260506080303 23 181 1.6 6.4 0.00 0.00 0.00 37 1015.7
20260506080203 23 184 1.6 6.4 0.00 0.00 0.00 38 1015.8
20260506080124 23 189 1.6 6.4 0.00 0.00 0.00 38 1015.7
20260506073524 22 180 1.6 6.4 0.00 0.00 0.00 42 1015.7
20260506073403 22 180 1.6 9.7 0.00 0.00 0.00 41 1015.6
20260506073303 22 183 1.6 9.7 0.00 0.00 0.00 41 1015.8
20260506073203 22 187 1.6 9.7 0.00 0.00 0.00 40 1015.8
20260506073103 22 184 1.6 12.9 0.00 0.00 0.00 41 1015.7
20260506073003 21 186 1.6 12.9 0.00 0.00 0.00 41 1015.6
20260506072903 21 186 1.6 12.9 0.00 0.00 0.00 41 1015.6
20260506072824 21 184 1.6 12.9 0.00 0.00 0.00 41 1015.9
20260506072703 21 184 1.6 12.9 0.00 0.00 0.00 41 1015.8
20260506072603 21 185 1.6 12.9 0.00 0.00 0.00 41 1015.8
20260506072503 21 179 1.6 12.9 0.00 0.00 0.00 42 1015.6
20260506072403 21 181 1.6 12.9 0.00 0.00 0.00 42 1015.6
20260506072305 21 181 1.6 12.9 0.00 0.00 0.00 42 1015.8
20260506072203 22 185 1.6 12.9 0.00 0.00 0.00 42 1015.8
20260506072103 22 201 1.6 9.7 0.00 0.00 0.00 41 1015.6
20260506072003 21 203 1.6 9.7 0.00 0.00 0.00 42 1015.7
20260506071903 21 203 0.0 9.7 0.00 0.00 0.00 42 1016.0
20260506071803 21 214 0.0 9.7 0.00 0.00 0.00 43 1015.7
20260506071703 21 212 0.0 9.7 0.00 0.00 0.00 43 1015.7
20260506071603 21 203 0.0 9.7 0.00 0.00 0.00 43 1015.8
20260506071503 21 203 0.0 9.7 0.00 0.00 0.00 44 1015.6
20260506071424 21 202 0.0 9.7 0.00 0.00 0.00 44 1015.8
20260506071324 21 200 0.0 9.7 0.00 0.00 0.00 44 1015.9
20260506071224 21 196 0.0 9.7 0.00 0.00 0.00 43 1015.8
20260506071103 21 171 0.0 4.8 0.00 0.00 0.00 43 1015.8
20260506071003 21 181 0.0 6.4 0.00 0.00 0.00 44 1015.6
20260506070903 20 190 1.6 6.4 0.00 0.00 0.00 44 1015.9
20260506070803 20 193 1.6 6.4 0.00 0.00 0.00 45 1015.7
20260506070703 20 196 1.6 6.4 0.00 0.00 0.00 45 1015.8
20260506070624 20 197 1.6 6.4 0.00 0.00 0.00 45 1015.9
20260506070503 20 198 1.6 6.4 0.00 0.00 0.00 45 1015.9
20260506070403 20 200 1.6 6.4 0.00 0.00 0.00 45 1015.7
20260506070303 20 201 1.6 6.4 0.00 0.00 0.00 45 1015.8
20260506070226 20 198 1.6 6.4 0.00 0.00 0.00 46 1015.7
20260506070103 20 200 1.6 6.4 0.00 0.00 0.00 46 1015.9
20260506062503 18 183 1.6 9.7 0.00 0.00 0.00 48 1015.9
20260506062403 18 188 1.6 9.7 0.00 0.00 0.00 48 1015.8
20260506062324 18 185 1.6 9.7 0.00 0.00 0.00 48 1015.7
20260506062203 18 184 1.6 9.7 0.00 0.00 0.00 49 1015.8
20260506062103 18 185 0.0 9.7 0.00 0.00 0.00 48 1015.6
20260506062003 18 182 0.0 6.4 0.00 0.00 0.00 49 1015.9
20260506061903 18 178 0.0 6.4 0.00 0.00 0.00 48 1015.8
20260506061803 18 174 1.6 6.4 0.00 0.00 0.00 48 1015.8
20260506061703 18 181 1.6 9.7 0.00 0.00 0.00 48 1015.9
20260506061603 18 183 1.6 9.7 0.00 0.00 0.00 49 1016.0
20260506061524 18 186 1.6 9.7 0.00 0.00 0.00 49 1015.6
20260506061403 18 185 1.6 9.7 0.00 0.00 0.00 48 1015.8
20260506061303 18 192 1.6 9.7 0.00 0.00 0.00 50 1015.8
20260506061203 18 198 1.6 9.7 0.00 0.00 0.00 49 1015.8
20260506061124 18 197 1.6 9.7 0.00 0.00 0.00 49 1015.8
20260506061003 18 196 1.6 9.7 0.00 0.00 0.00 50 1015.8
20260506060924 18 197 1.6 9.7 0.00 0.00 0.00 50 1015.8
20260506060803 18 209 1.6 9.7 0.00 0.00 0.00 49 1015.9
20260506060703 17 208 1.6 9.7 0.00 0.00 0.00 51 1015.9
20260506060603 17 207 1.6 9.7 0.00 0.00 0.00 50 1015.8
20260506060503 17 208 1.6 9.7 0.00 0.00 0.00 51 1015.8
20260506060403 17 212 1.6 9.7 0.00 0.00 0.00 50 1015.8
20260506060303 17 213 1.6 9.7 0.00 0.00 0.00 50 1015.6
20260506060203 17 206 0.0 9.7 0.00 0.00 0.00 51 1015.8
20260506051403 16 172 1.6 9.7 0.00 0.00 0.00 54 1015.8
20260506051303 16 176 1.6 11.3 0.00 0.00 0.00 54 1015.8
20260506051203 16 180 1.6 11.3 0.00 0.00 0.00 55 1015.7
20260506051124 16 182 1.6 11.3 0.00 0.00 0.00 55 1015.6
20260506051003 16 190 1.6 11.3 0.00 0.00 0.00 55 1015.7
20260506050903 16 186 1.6 11.3 0.00 0.00 0.00 55 1015.7
20260506050803 15 185 1.6 11.3 0.00 0.00 0.00 56 1015.8
20260506050703 15 185 1.6 11.3 0.00 0.00 0.00 55 1015.8
20260506050603 15 184 1.6 11.3 0.00 0.00 0.00 56 1015.7
20260506050503 15 184 1.6 11.3 0.00 0.00 0.00 56 1015.4
20260506050403 15 184 1.6 11.3 0.00 0.00 0.00 56 1015.5
20260506050324 15 185 1.6 11.3 0.00 0.00 0.00 56 1015.5
20260506050203 15 179 1.6 9.7 0.00 0.00 0.00 56 1015.6
20260506050103 15 173 0.0 9.7 0.00 0.00 0.00 56 1015.6
20260506045103 15 171 1.6 9.7 0.00 0.00 0.00 58 1015.5
20260506045003 14 172 1.6 9.7 0.00 0.00 0.00 59 1015.7
20260506044903 14 172 1.6 9.7 0.00 0.00 0.00 59 1015.6
20260506044803 14 175 1.6 9.7 0.00 0.00 0.00 58 1015.7
20260506044703 14 182 1.6 9.7 0.00 0.00 0.00 59 1015.3
20260506044603 14 182 1.6 9.7 0.00 0.00 0.00 58 1015.4
20260506044503 14 187 1.6 9.7 0.00 0.00 0.00 59 1015.5
20260506044403 14 185 0.0 6.4 0.00 0.00 0.00 59 1015.5
20260506044303 14 187 0.0 6.4 0.00 0.00 0.00 59 1015.5
20260506044224 14 188 0.0 6.4 0.00 0.00 0.00 59 1015.6
20260506044103 14 188 0.0 6.4 0.00 0.00 0.00 59 1015.5
20260506044003 13 196 0.0 4.8 0.00 0.00 0.00 59 1015.5
20260506043903 13 196 0.0 4.8 0.00 0.00 0.00 60 1015.3
20260506043803 14 204 0.0 4.8 0.00 0.00 0.00 59 1015.6
20260506043724 14 184 0.0 4.8 0.00 0.00 0.00 59 1015.6
20260506043603 14 175 0.0 4.8 0.00 0.00 0.00 59 1015.3
20260506043503 14 172 0.0 4.8 0.00 0.00 0.00 58 1015.5
20260506043403 14 170 0.0 4.8 0.00 0.00 0.00 58 1015.2
20260506043303 14 170 0.0 4.8 0.00 0.00 0.00 58 1015.4
20260506043203 13 170 0.0 4.8 0.00 0.00 0.00 59 1015.7
20260506043103 13 170 0.0 4.8 0.00 0.00 0.00 60 1015.4
20260506043003 13 170 0.0 4.8 0.00 0.00 0.00 61 1015.3
20260506042903 13 170 0.0 4.8 0.00 0.00 0.00 60 1015.4
20260506042803 13 170 0.0 4.8 0.00 0.00 0.00 60 1015.4
20260506042724 13 172 0.0 4.8 0.00 0.00 0.00 60 1015.5
20260506042624 13 0 0.0 0.0 0.00 0.00 0.00 60 1015.3
20260506042503 13 0 0.0 0.0 0.00 0.00 0.00 61 1015.6
20260506042404 13 0 0.0 0.0 0.00 0.00 0.00 61 1015.5
20260506042305 13 0 0.0 0.0 0.00 0.00 0.00 61 1015.4
20260506042203 13 0 0.0 0.0 0.00 0.00 0.00 61 1015.5
20260506042103 13 0 0.0 0.0 0.00 0.00 0.00 61 1015.5
20260506042003 13 0 0.0 0.0 0.00 0.00 0.00 62 1015.5
20260506041903 13 0 0.0 0.0 0.00 0.00 0.00 62 1015.4
20260506041803 13 0 0.0 0.0 0.00 0.00 0.00 62 1015.5
20260506041724 13 0 0.0 0.0 0.00 0.00 0.00 61 1015.5
20260506041603 13 0 0.0 0.0 0.00 0.00 0.00 62 1015.4
20260506041524 13 0 0.0 0.0 0.00 0.00 0.00 62 1015.4
20260506041403 12 0 0.0 0.0 0.00 0.00 0.00 62 1015.3
20260506041303 12 0 0.0 0.0 0.00 0.00 0.00 63 1015.4
20260506041203 12 0 0.0 0.0 0.00 0.00 0.00 62 1015.3
20260506041104 12 0 0.0 0.0 0.00 0.00 0.00 63 1015.4
20260506041003 12 0 0.0 0.0 0.00 0.00 0.00 63 1015.3
20260506040924 12 0 0.0 0.0 0.00 0.00 0.00 63 1015.5
20260506040803 12 0 0.0 0.0 0.00 0.00 0.00 63 1015.3
20260506040724 12 0 0.0 0.0 0.00 0.00 0.00 63 1015.3
20260506040603 12 0 0.0 0.0 0.00 0.00 0.00 63 1015.4
20260506040503 12 0 0.0 0.0 0.00 0.00 0.00 63 1015.4
20260506040403 12 0 0.0 0.0 0.00 0.00 0.00 63 1015.4
20260506040303 12 0 0.0 0.0 0.00 0.00 0.00 64 1015.2
20260506040203 12 0 0.0 0.0 0.00 0.00 0.00 64 1015.4
20260506040124 12 0 0.0 0.0 0.00 0.00 0.00 64 1015.3
20260506040003 11 0 0.0 0.0 0.00 0.00 0.00 65 1015.4
20260506035903 11 0 0.0 0.0 0.00 0.00 0.00 65 1015.3
20260506035803 11 163 0.0 1.6 0.00 0.00 0.00 65 1015.3
20260506035703 11 163 0.0 1.6 0.00 0.00 0.00 65 1015.2
20260506035603 11 163 0.0 1.6 0.00 0.00 0.00 65 1015.4
20260506035524 11 163 0.0 1.6 0.00 0.00 0.00 66 1015.1
20260506035403 11 163 0.0 1.6 0.00 0.00 0.00 67 1015.4
20260506035305 11 163 0.0 1.6 0.00 0.00 0.00 67 1015.3
20260506035203 11 163 0.0 1.6 0.00 0.00 0.00 67 1015.3
20260506035124 11 163 0.0 1.6 0.00 0.00 0.00 68 1015.3
20260506035003 11 163 0.0 1.6 0.00 0.00 0.00 68 1015.2
20260506034903 10 163 0.0 1.6 0.00 0.00 0.00 68 1015.2
20260506034803 10 0 0.0 0.0 0.00 0.00 0.00 68 1015.5
20260506034703 10 0 0.0 0.0 0.00 0.00 0.00 69 1015.2
20260506034603 10 0 0.0 0.0 0.00 0.00 0.00 69 1015.1
20260506034503 10 0 0.0 0.0 0.00 0.00 0.00 69 1015.2
20260506034403 10 0 0.0 0.0 0.00 0.00 0.00 69 1015.3
20260506034303 10 0 0.0 0.0 0.00 0.00 0.00 69 1015.3
20260506034203 10 0 0.0 0.0 0.00 0.00 0.00 69 1015.2
20260506034103 10 0 0.0 0.0 0.00 0.00 0.00 69 1015.2
20260506034003 10 0 0.0 0.0 0.00 0.00 0.00 69 1015.3
20260506033903 10 0 0.0 0.0 0.00 0.00 0.00 70 1015.1
20260506033803 10 0 0.0 0.0 0.00 0.00 0.00 70 1015.0
20260506033724 10 0 0.0 0.0 0.00 0.00 0.00 70 1015.2
20260506033603 9 0 0.0 0.0 0.00 0.00 0.00 71 1015.2
20260506033503 9 0 0.0 0.0 0.00 0.00 0.00 72 1015.2
20260506033403 9 0 0.0 0.0 0.00 0.00 0.00 73 1015.1
20260506033303 9 0 0.0 0.0 0.00 0.00 0.00 73 1015.0
20260506033203 8 0 0.0 0.0 0.00 0.00 0.00 73 1015.1
20260506033103 8 0 0.0 0.0 0.00 0.00 0.00 73 1015.2
20260506033024 8 0 0.0 0.0 0.00 0.00 0.00 73 1015.1
20260506032924 8 0 0.0 0.0 0.00 0.00 0.00 74 1015.2
20260506032803 8 0 0.0 0.0 0.00 0.00 0.00 74 1015.0
20260506032703 8 0 0.0 0.0 0.00 0.00 0.00 74 1014.9
20260506032603 8 0 0.0 0.0 0.00 0.00 0.00 75 1015.1
20260506032503 8 0 0.0 0.0 0.00 0.00 0.00 75 1015.1
20260506032403 8 0 0.0 0.0 0.00 0.00 0.00 75 1015.1
20260506032305 8 0 0.0 0.0 0.00 0.00 0.00 75 1015.0
20260506032203 8 0 0.0 0.0 0.00 0.00 0.00 75 1015.2
20260506032103 8 0 0.0 0.0 0.00 0.00 0.00 75 1015.2
20260506032003 8 0 0.0 0.0 0.00 0.00 0.00 75 1015.1
20260506031924 8 0 0.0 0.0 0.00 0.00 0.00 75 1015.1
20260506031824 8 0 0.0 0.0 0.00 0.00 0.00 75 1015.0
20260506031724 8 0 0.0 0.0 0.00 0.00 0.00 76 1015.1
20260506031603 8 0 0.0 0.0 0.00 0.00 0.00 76 1014.8
20260506031524 8 0 0.0 0.0 0.00 0.00 0.00 76 1014.9
20260506031403 8 0 0.0 0.0 0.00 0.00 0.00 76 1015.0
20260506031303 8 0 0.0 0.0 0.00 0.00 0.00 76 1015.0
20260506031203 7 0 0.0 0.0 0.00 0.00 0.00 76 1014.9
20260506031103 7 0 0.0 0.0 0.00 0.00 0.00 76 1015.0
20260506031003 7 0 0.0 0.0 0.00 0.00 0.00 76 1014.9
20260506030924 7 0 0.0 0.0 0.00 0.00 0.00 76 1014.9
20260506030804 7 0 0.0 0.0 0.00 0.00 0.00 76 1015.1
20260506030703 7 0 0.0 0.0 0.00 0.00 0.00 76 1014.8
20260506030603 7 0 0.0 0.0 0.00 0.00 0.00 76 1014.7
20260506030503 7 0 0.0 0.0 0.00 0.00 0.00 76 1014.8
20260506030403 7 0 0.0 0.0 0.00 0.00 0.00 76 1014.8
20260506030303 7 0 0.0 0.0 0.00 0.00 0.00 76 1014.7
20260506030203 7 0 0.0 0.0 0.00 0.00 0.00 76 1014.8
20260506030103 7 0 0.0 0.0 0.00 0.00 0.00 76 1014.7
20260506030003 7 0 0.0 0.0 0.00 0.00 0.00 76 1014.9
20260506025903 7 0 0.0 0.0 0.00 0.00 0.00 76 1014.8
20260506025803 7 0 0.0 0.0 0.00 0.00 0.00 76 1014.8
20260506025703 7 0 0.0 0.0 0.00 0.00 0.00 76 1014.7
20260506025603 7 0 0.0 0.0 0.00 0.00 0.00 76 1014.6
20260506025524 7 0 0.0 0.0 0.00 0.00 0.00 76 1014.8
20260506025403 7 0 0.0 0.0 0.00 0.00 0.00 76 1014.7
20260506025305 7 0 0.0 0.0 0.00 0.00 0.00 76 1014.9
20260506025203 7 0 0.0 0.0 0.00 0.00 0.00 76 1015.0
20260506025103 7 0 0.0 0.0 0.00 0.00 0.00 75 1014.9
20260506025024 7 0 0.0 0.0 0.00 0.00 0.00 76 1015.0
20260506024903 7 0 0.0 0.0 0.00 0.00 0.00 76 1014.9
20260506024803 7 0 0.0 0.0 0.00 0.00 0.00 75 1014.8
20260506024703 7 0 0.0 0.0 0.00 0.00 0.00 75 1014.8
20260506024603 7 0 0.0 0.0 0.00 0.00 0.00 75 1014.8
20260506024503 7 0 0.0 0.0 0.00 0.00 0.00 76 1014.7
20260506024403 7 0 0.0 0.0 0.00 0.00 0.00 76 1014.8
20260506024303 7 0 0.0 0.0 0.00 0.00 0.00 76 1014.7
20260506024203 7 0 0.0 0.0 0.00 0.00 0.00 76 1014.9
20260506024104 7 0 0.0 0.0 0.00 0.00 0.00 76 1014.8
20260506024003 7 0 0.0 0.0 0.00 0.00 0.00 76 1014.7
20260506023903 7 0 0.0 0.0 0.00 0.00 0.00 76 1014.9
20260506023803 7 0 0.0 0.0 0.00 0.00 0.00 76 1014.7
20260506023703 7 0 0.0 0.0 0.00 0.00 0.00 76 1014.8
20260506023603 7 0 0.0 0.0 0.00 0.00 0.00 76 1014.7
20260506023503 7 0 0.0 0.0 0.00 0.00 0.00 76 1014.8
20260506023403 7 0 0.0 0.0 0.00 0.00 0.00 75 1014.9
20260506023303 7 0 0.0 0.0 0.00 0.00 0.00 75 1014.7
20260506023203 7 0 0.0 0.0 0.00 0.00 0.00 75 1014.6
20260506023103 7 0 0.0 0.0 0.00 0.00 0.00 75 1014.6
20260506023003 7 0 0.0 0.0 0.00 0.00 0.00 74 1015.0
20260506022924 8 0 0.0 0.0 0.00 0.00 0.00 74 1014.8
20260506022803 8 0 0.0 0.0 0.00 0.00 0.00 74 1014.6
20260506022703 8 0 0.0 0.0 0.00 0.00 0.00 74 1014.7
20260506022603 8 0 0.0 0.0 0.00 0.00 0.00 74 1014.8
20260506022503 8 0 0.0 0.0 0.00 0.00 0.00 74 1014.6
20260506022403 8 0 0.0 0.0 0.00 0.00 0.00 75 1014.6
20260506022305 7 0 0.0 0.0 0.00 0.00 0.00 75 1014.7
20260506022203 7 0 0.0 0.0 0.00 0.00 0.00 75 1014.7
20260506022103 7 0 0.0 0.0 0.00 0.00 0.00 75 1014.7
20260506022024 7 0 0.0 0.0 0.00 0.00 0.00 74 1014.6
20260506021903 7 0 0.0 0.0 0.00 0.00 0.00 74 1014.6
20260506021803 7 0 0.0 0.0 0.00 0.00 0.00 74 1014.3
20260506021703 7 0 0.0 0.0 0.00 0.00 0.00 74 1014.6
20260506021603 8 0 0.0 0.0 0.00 0.00 0.00 74 1014.7
20260506021524 8 0 0.0 0.0 0.00 0.00 0.00 74 1014.6
20260506021403 8 0 0.0 0.0 0.00 0.00 0.00 74 1014.6
20260506021303 8 0 0.0 0.0 0.00 0.00 0.00 74 1014.4
20260506021203 8 0 0.0 0.0 0.00 0.00 0.00 74 1014.7
20260506021103 7 0 0.0 0.0 0.00 0.00 0.00 74 1014.4
20260506021003 8 0 0.0 0.0 0.00 0.00 0.00 74 1014.7
20260506020903 8 0 0.0 0.0 0.00 0.00 0.00 74 1014.4
20260506020803 8 0 0.0 0.0 0.00 0.00 0.00 74 1014.6
20260506020703 8 0 0.0 0.0 0.00 0.00 0.00 73 1014.4
20260506020603 8 0 0.0 0.0 0.00 0.00 0.00 73 1014.6
20260506020503 8 0 0.0 0.0 0.00 0.00 0.00 74 1014.7
20260506020403 8 0 0.0 0.0 0.00 0.00 0.00 74 1014.4
20260506020324 8 0 0.0 0.0 0.00 0.00 0.00 74 1014.6
20260506020203 8 0 0.0 0.0 0.00 0.00 0.00 74 1014.6
20260506020103 8 0 0.0 0.0 0.00 0.00 0.00 74 1014.7
20260506020024 8 0 0.0 0.0 0.00 0.00 0.00 73 1014.7
20260506015903 8 0 0.0 0.0 0.00 0.00 0.00 74 1014.7
20260506015803 8 0 0.0 0.0 0.00 0.00 0.00 73 1014.7
20260506015703 8 0 0.0 0.0 0.00 0.00 0.00 73 1014.7
20260506015603 8 0 0.0 0.0 0.00 0.00 0.00 73 1014.8
20260506015503 8 0 0.0 0.0 0.00 0.00 0.00 73 1014.7
20260506015403 8 0 0.0 0.0 0.00 0.00 0.00 73 1014.6
20260506015324 8 0 0.0 0.0 0.00 0.00 0.00 73 1014.7
20260506015224 8 0 0.0 0.0 0.00 0.00 0.00 73 1014.7
20260506015103 8 0 0.0 0.0 0.00 0.00 0.00 73 1014.4
20260506015003 8 0 0.0 0.0 0.00 0.00 0.00 73 1014.7
20260506014903 8 0 0.0 0.0 0.00 0.00 0.00 73 1014.4
20260506014803 8 0 0.0 0.0 0.00 0.00 0.00 73 1014.6
20260506014724 8 0 0.0 0.0 0.00 0.00 0.00 73 1014.6
20260506014603 8 0 0.0 0.0 0.00 0.00 0.00 73 1014.7
20260506014503 8 0 0.0 0.0 0.00 0.00 0.00 73 1014.3
20260506014403 8 0 0.0 0.0 0.00 0.00 0.00 72 1014.4
20260506014303 8 0 0.0 0.0 0.00 0.00 0.00 72 1014.7
20260506014203 8 0 0.0 0.0 0.00 0.00 0.00 72 1014.6
20260506014103 8 0 0.0 0.0 0.00 0.00 0.00 72 1014.7
20260506014003 8 0 0.0 0.0 0.00 0.00 0.00 72 1014.4
20260506013924 8 0 0.0 0.0 0.00 0.00 0.00 72 1014.4
20260506013803 8 0 0.0 0.0 0.00 0.00 0.00 72 1014.8
20260506013724 8 0 0.0 0.0 0.00 0.00 0.00 72 1014.6
20260506013624 8 0 0.0 0.0 0.00 0.00 0.00 72 1014.4
20260506013524 8 0 0.0 0.0 0.00 0.00 0.00 72 1014.7
20260506013403 8 0 0.0 0.0 0.00 0.00 0.00 71 1014.4
20260506013303 8 0 0.0 0.0 0.00 0.00 0.00 71 1014.7
20260506013203 8 0 0.0 0.0 0.00 0.00 0.00 71 1014.7
20260506013103 8 0 0.0 0.0 0.00 0.00 0.00 71 1014.4
20260506013003 8 0 0.0 0.0 0.00 0.00 0.00 70 1014.6
20260506012903 9 0 0.0 0.0 0.00 0.00 0.00 70 1014.4
20260506012803 9 0 0.0 0.0 0.00 0.00 0.00 70 1014.7
20260506012703 9 0 0.0 0.0 0.00 0.00 0.00 70 1014.4
20260506012603 9 0 0.0 0.0 0.00 0.00 0.00 70 1014.6
20260506012503 9 0 0.0 0.0 0.00 0.00 0.00 69 1014.3
20260506012403 9 0 0.0 0.0 0.00 0.00 0.00 69 1014.7
20260506012307 9 0 0.0 0.0 0.00 0.00 0.00 69 1014.4
20260506012203 9 0 0.0 0.0 0.00 0.00 0.00 70 1014.6
20260506012103 9 0 0.0 0.0 0.00 0.00 0.00 70 1014.7
20260506012024 9 0 0.0 0.0 0.00 0.00 0.00 70 1014.7
20260506011903 9 0 0.0 0.0 0.00 0.00 0.00 70 1014.4
20260506011803 9 0 0.0 0.0 0.00 0.00 0.00 70 1014.3
20260506011703 9 0 0.0 0.0 0.00 0.00 0.00 69 1014.6
20260506011603 9 0 0.0 0.0 0.00 0.00 0.00 70 1014.9
20260506011524 9 0 0.0 0.0 0.00 0.00 0.00 69 1014.4
20260506011403 9 0 0.0 0.0 0.00 0.00 0.00 69 1014.6
20260506011303 9 0 0.0 0.0 0.00 0.00 0.00 69 1014.6
20260506011203 9 0 0.0 0.0 0.00 0.00 0.00 68 1014.4
20260506011103 9 0 0.0 0.0 0.00 0.00 0.00 68 1014.4
20260506011003 9 0 0.0 0.0 0.00 0.00 0.00 67 1014.4
20260506010924 10 0 0.0 0.0 0.00 0.00 0.00 67 1014.2
20260506010803 10 0 0.0 0.0 0.00 0.00 0.00 67 1014.4
20260506010703 10 0 0.0 0.0 0.00 0.00 0.00 67 1014.4
20260506010624 10 0 0.0 0.0 0.00 0.00 0.00 67 1014.4
20260506010503 10 0 0.0 0.0 0.00 0.00 0.00 67 1014.2
20260506010403 10 0 0.0 0.0 0.00 0.00 0.00 67 1014.3
20260506010303 10 0 0.0 0.0 0.00 0.00 0.00 66 1014.2
20260506010203 10 0 0.0 0.0 0.00 0.00 0.00 66 1014.6
20260506010103 10 0 0.0 0.0 0.00 0.00 0.00 66 1014.3
20260506010003 10 0 0.0 0.0 0.00 0.00 0.00 65 1014.4
20260506005903 10 0 0.0 0.0 0.00 0.00 0.00 65 1014.2
20260506005803 10 0 0.0 0.0 0.00 0.00 0.00 64 1014.3
20260506005703 10 0 0.0 0.0 0.00 0.00 0.00 64 1014.2
20260506005603 10 0 0.0 0.0 0.00 0.00 0.00 64 1014.2
20260506005503 10 0 0.0 0.0 0.00 0.00 0.00 64 1014.2
20260506005403 10 0 0.0 0.0 0.00 0.00 0.00 64 1014.6
20260506005305 11 0 0.0 0.0 0.00 0.00 0.00 64 1014.1
20260506005203 11 0 0.0 0.0 0.00 0.00 0.00 63 1014.6
20260506005103 11 0 0.0 0.0 0.00 0.00 0.00 63 1014.3
20260506005003 11 0 0.0 0.0 0.00 0.00 0.00 63 1014.3
20260506004903 11 0 0.0 0.0 0.00 0.00 0.00 63 1014.4
20260506004805 11 0 0.0 0.0 0.00 0.00 0.00 63 1014.1
20260506004704 11 0 0.0 0.0 0.00 0.00 0.00 62 1014.2
20260506004604 11 0 0.0 0.0 0.00 0.00 0.00 62 1014.1
20260506004505 11 0 0.0 0.0 0.00 0.00 0.00 62 1014.4
20260506004404 11 0 0.0 0.0 0.00 0.00 0.00 62 1014.4
20260506004304 11 0 0.0 0.0 0.00 0.00 0.00 62 1014.2
20260506004225 11 0 0.0 0.0 0.00 0.00 0.00 61 1014.3
20260506004104 11 0 0.0 0.0 0.00 0.00 0.00 61 1014.3
20260506004004 11 0 0.0 0.0 0.00 0.00 0.00 61 1014.2
20260506003904 11 0 0.0 0.0 0.00 0.00 0.00 61 1014.3
20260506003804 11 0 0.0 0.0 0.00 0.00 0.00 61 1014.3
20260506003704 11 166 0.0 1.6 0.00 0.00 0.00 61 1014.2
20260506003604 11 183 0.0 1.6 0.00 0.00 0.00 61 1014.4
20260506003504 11 183 0.0 1.6 0.00 0.00 0.00 60 1014.3
20260506003425 11 183 0.0 1.6 0.00 0.00 0.00 60 1014.4
20260506003304 12 183 0.0 1.6 0.00 0.00 0.00 60 1014.4
20260506003204 12 183 0.0 1.6 0.00 0.00 0.00 60 1014.1
20260506003104 12 183 0.0 1.6 0.00 0.00 0.00 60 1014.6
20260506003025 12 183 0.0 1.6 0.00 0.00 0.00 60 1014.1
20260506002904 12 183 0.0 1.6 0.00 0.00 0.00 59 1014.1
20260506002804 12 183 0.0 1.6 0.00 0.00 0.00 59 1014.4
20260506002704 12 187 0.0 1.6 0.00 0.00 0.00 59 1014.0
20260506002604 12 0 0.0 0.0 0.00 0.00 0.00 59 1014.3
20260506002504 12 185 0.0 1.6 0.00 0.00 0.00 59 1014.0
20260506002404 12 185 0.0 1.6 0.00 0.00 0.00 59 1014.3
20260506002306 12 185 0.0 1.6 0.00 0.00 0.00 59 1014.1
20260506002225 12 185 0.0 1.6 0.00 0.00 0.00 58 1014.2
20260506002104 12 185 0.0 1.6 0.00 0.00 0.00 58 1014.3
20260506002004 12 185 0.0 1.6 0.00 0.00 0.00 58 1014.2
20260506001904 12 185 0.0 1.6 0.00 0.00 0.00 58 1014.1
20260506001804 12 185 0.0 1.6 0.00 0.00 0.00 57 1014.1
20260506001704 12 185 0.0 1.6 0.00 0.00 0.00 57 1014.2
20260506001604 12 185 0.0 1.6 0.00 0.00 0.00 57 1014.1
20260506001504 12 0 0.0 0.0 0.00 0.00 0.00 58 1014.2
20260506001404 12 0 0.0 0.0 0.00 0.00 0.00 58 1014.3
20260506001304 12 0 0.0 0.0 0.00 0.00 0.00 58 1014.1
20260506001204 12 0 0.0 0.0 0.00 0.00 0.00 58 1014.2
20260506001104 12 0 0.0 0.0 0.00 0.00 0.00 57 1014.2
20260506001004 12 178 0.0 1.6 0.00 0.00 0.00 57 1014.1
20260506000904 12 178 0.0 1.6 0.00 0.00 0.00 57 1014.2
20260506000804 12 178 0.0 1.6 0.00 0.00 0.00 56 1014.0
20260506000704 12 178 0.0 1.6 0.00 0.00 0.00 56 1014.1
20260506000605 12 178 0.0 1.6 0.00 0.00 0.00 56 1014.2
20260506000504 12 178 0.0 1.6 0.00 0.00 0.00 56 1014.2
20260506000404 13 178 0.0 1.6 0.00 0.00 0.00 56 1014.1
20260506000304 13 178 0.0 1.6 0.00 0.00 0.00 55 1014.1
20260506000205 13 178 0.0 1.6 0.00 0.00 0.00 55 1014.1
20260506000104 13 178 0.0 1.6 0.00 0.00 0.00 55 1014.1
20260506000004 13 182 0.0 1.6 0.00 0.00 0.00 55 1014.0
20260505235904 13 184 0.0 1.6 0.00 0.00 0.00 55 1014.1
20260505235804 13 184 0.0 1.6 0.00 0.00 0.00 55 1014.1
20260505235704 13 184 0.0 1.6 0.00 0.00 0.00 55 1014.2
20260505235604 13 184 0.0 1.6 0.00 0.00 0.00 55 1014.0
20260505235504 13 184 0.0 1.6 0.00 0.00 0.00 54 1014.0
20260505235425 13 184 0.0 1.6 0.00 0.00 0.00 54 1014.1
20260505235305 13 184 0.0 1.6 0.00 0.00 0.00 54 1014.0
20260505235204 13 184 0.0 1.6 0.00 0.00 0.00 54 1014.0
20260505235104 13 196 0.0 1.6 0.00 0.00 0.00 54 1014.0
20260505235004 13 0 0.0 0.0 0.00 0.00 0.00 54 1014.1
20260505234904 13 153 0.0 1.6 0.00 0.00 0.00 54 1013.9
20260505234804 13 158 0.0 3.2 0.00 0.00 0.00 54 1014.0
20260505234704 13 173 0.0 3.2 0.00 0.00 0.00 54 1014.0
20260505234604 13 173 0.0 3.2 0.00 0.00 0.00 54 1014.1
20260505234504 13 173 0.0 3.2 0.00 0.00 0.00 54 1013.9
20260505234404 13 173 0.0 3.2 0.00 0.00 0.00 54 1014.1
20260505234304 13 173 0.0 3.2 0.00 0.00 0.00 54 1014.0
20260505234225 13 173 0.0 3.2 0.00 0.00 0.00 54 1014.0
20260505234104 13 172 0.0 3.2 0.00 0.00 0.00 54 1014.0
20260505234004 13 172 0.0 3.2 0.00 0.00 0.00 54 1013.9
20260505233904 13 177 0.0 3.2 0.00 0.00 0.00 53 1014.0
20260505233804 13 194 0.0 1.6 0.00 0.00 0.00 53 1014.1
20260505233704 13 185 0.0 1.6 0.00 0.00 0.00 53 1014.1
20260505233625 13 167 0.0 1.6 0.00 0.00 0.00 53 1014.1
20260505233504 13 167 0.0 1.6 0.00 0.00 0.00 53 1014.0
20260505233404 13 167 0.0 1.6 0.00 0.00 0.00 53 1014.0
20260505233304 13 167 0.0 1.6 0.00 0.00 0.00 53 1014.2
20260505233225 13 167 0.0 1.6 0.00 0.00 0.00 53 1014.0
20260505233104 13 175 0.0 1.6 0.00 0.00 0.00 53 1014.0
20260505233004 13 175 0.0 1.6 0.00 0.00 0.00 53 1014.0
20260505232905 13 196 0.0 3.2 0.00 0.00 0.00 53 1014.0
20260505232804 13 196 0.0 3.2 0.00 0.00 0.00 53 1014.0
20260505232704 13 190 0.0 3.2 0.00 0.00 0.00 53 1014.6
20260505232604 13 190 0.0 3.2 0.00 0.00 0.00 52 1014.2
20260505232504 13 190 0.0 3.2 0.00 0.00 0.00 52 1013.9
20260505232404 13 190 0.0 3.2 0.00 0.00 0.00 53 1014.2
20260505232305 13 190 0.0 3.2 0.00 0.00 0.00 53 1014.0
20260505232204 13 190 0.0 3.2 0.00 0.00 0.00 52 1013.9
20260505232104 13 195 0.0 3.2 0.00 0.00 0.00 53 1014.0
20260505232004 13 187 0.0 3.2 0.00 0.00 0.00 52 1014.0
20260505231904 13 165 0.0 1.6 0.00 0.00 0.00 52 1014.0
20260505231804 13 165 0.0 1.6 0.00 0.00 0.00 52 1014.1
20260505231704 13 161 0.0 1.6 0.00 0.00 0.00 52 1013.7
20260505231604 13 161 0.0 1.6 0.00 0.00 0.00 52 1013.9
20260505231504 13 164 0.0 1.6 0.00 0.00 0.00 52 1014.2
20260505231404 13 169 0.0 1.6 0.00 0.00 0.00 52 1013.8
20260505231304 13 187 0.0 1.6 0.00 0.00 0.00 52 1014.1
20260505231204 13 187 0.0 1.6 0.00 0.00 0.00 52 1014.1
20260505231125 13 187 0.0 1.6 0.00 0.00 0.00 52 1014.1
20260505231004 13 192 0.0 1.6 0.00 0.00 0.00 52 1014.0
20260505230926 13 194 0.0 1.6 0.00 0.00 0.00 52 1013.9
20260505230804 13 194 0.0 1.6 0.00 0.00 0.00 52 1014.0
20260505230704 13 194 0.0 1.6 0.00 0.00 0.00 52 1014.0
20260505230604 13 189 0.0 1.6 0.00 0.00 0.00 51 1014.0
20260505230525 13 189 0.0 1.6 0.00 0.00 0.00 51 1014.0
20260505230404 13 192 0.0 1.6 0.00 0.00 0.00 51 1014.0
20260505230304 13 181 0.0 1.6 0.00 0.00 0.00 52 1014.2
20260505230225 13 181 0.0 1.6 0.00 0.00 0.00 52 1014.1
20260505230104 13 181 0.0 1.6 0.00 0.00 0.00 51 1014.0
20260505230004 13 173 0.0 1.6 0.00 0.00 0.00 52 1014.1
20260505225904 13 170 0.0 1.6 0.00 0.00 0.00 51 1014.0
20260505225825 13 174 0.0 1.6 0.00 0.00 0.00 51 1014.2
20260505225705 13 174 0.0 1.6 0.00 0.00 0.00 51 1014.0
20260505225604 13 175 0.0 1.6 0.00 0.00 0.00 51 1014.1
20260505225504 14 175 0.0 1.6 0.00 0.00 0.00 51 1014.2
20260505225404 14 175 0.0 1.6 0.00 0.00 0.00 51 1014.0
20260505225306 14 178 0.0 1.6 0.00 0.00 0.00 51 1014.2
20260505225204 14 180 0.0 1.6 0.00 0.00 0.00 50 1014.0
20260505225125 14 180 0.0 1.6 0.00 0.00 0.00 50 1014.0
20260505225025 14 182 0.0 3.2 0.00 0.00 0.00 50 1014.2
20260505224904 14 178 0.0 3.2 0.00 0.00 0.00 50 1013.9
20260505224804 14 178 0.0 3.2 0.00 0.00 0.00 50 1014.1
20260505224704 14 176 0.0 3.2 0.00 0.00 0.00 50 1014.1
20260505224604 14 171 0.0 4.8 0.00 0.00 0.00 50 1014.0
20260505224504 14 171 0.0 4.8 0.00 0.00 0.00 49 1014.0
20260505224404 14 171 0.0 4.8 0.00 0.00 0.00 49 1014.1
20260505224304 14 169 0.0 4.8 0.00 0.00 0.00 49 1014.1
20260505224204 14 169 0.0 6.4 0.00 0.00 0.00 49 1014.1
20260505224104 14 169 0.0 6.4 0.00 0.00 0.00 49 1014.1
20260505224004 14 167 0.0 6.4 0.00 0.00 0.00 49 1014.2
20260505223904 15 167 0.0 6.4 0.00 0.00 0.00 49 1014.0
20260505223804 15 167 0.0 6.4 0.00 0.00 0.00 49 1014.2
20260505223704 15 167 0.0 6.4 0.00 0.00 0.00 49 1014.0
20260505223625 15 169 0.0 6.4 0.00 0.00 0.00 49 1014.1
20260505223504 15 170 0.0 6.4 0.00 0.00 0.00 49 1013.9
20260505223404 15 170 0.0 6.4 0.00 0.00 0.00 49 1014.1
20260505223304 15 171 0.0 6.4 0.00 0.00 0.00 49 1014.2
20260505223204 15 170 0.0 3.2 0.00 0.00 0.00 49 1013.9
20260505223104 15 168 0.0 3.2 0.00 0.00 0.00 49 1014.1
20260505223004 15 168 0.0 3.2 0.00 0.00 0.00 49 1014.2
20260505222904 15 164 0.0 3.2 0.00 0.00 0.00 49 1014.0
20260505222804 15 166 0.0 3.2 0.00 0.00 0.00 48 1014.0
20260505222704 15 169 0.0 3.2 0.00 0.00 0.00 48 1013.9
20260505222604 15 169 0.0 3.2 0.00 0.00 0.00 48 1013.9
20260505222504 15 170 0.0 3.2 0.00 0.00 0.00 48 1014.2
20260505222425 15 170 0.0 3.2 0.00 0.00 0.00 48 1014.0
20260505222306 15 169 0.0 3.2 0.00 0.00 0.00 48 1014.1
20260505222204 15 169 0.0 3.2 0.00 0.00 0.00 48 1013.9
20260505222104 15 171 0.0 3.2 0.00 0.00 0.00 48 1014.1
20260505222004 15 171 0.0 3.2 0.00 0.00 0.00 48 1013.9
20260505221904 15 174 0.0 3.2 0.00 0.00 0.00 48 1013.8
20260505221804 15 174 0.0 3.2 0.00 0.00 0.00 48 1014.0
20260505221704 15 170 0.0 4.8 0.00 0.00 0.00 48 1014.2
20260505221604 15 176 0.0 4.8 0.00 0.00 0.00 48 1014.0
20260505221525 15 176 0.0 4.8 0.00 0.00 0.00 48 1014.0
20260505221405 15 175 0.0 4.8 0.00 0.00 0.00 47 1014.2
20260505221304 15 174 0.0 4.8 0.00 0.00 0.00 47 1014.0
20260505221204 15 174 0.0 4.8 0.00 0.00 0.00 47 1014.1
20260505221104 15 173 0.0 4.8 0.00 0.00 0.00 47 1013.9
20260505221004 15 171 0.0 4.8 0.00 0.00 0.00 47 1014.0
20260505220904 15 171 0.0 6.4 0.00 0.00 0.00 47 1014.0
20260505220804 15 172 0.0 6.4 0.00 0.00 0.00 47 1013.9
20260505220704 15 178 0.0 6.4 0.00 0.00 0.00 46 1014.1
20260505220604 15 179 0.0 6.4 0.00 0.00 0.00 47 1014.0
20260505220504 15 179 0.0 6.4 0.00 0.00 0.00 46 1014.0
20260505220404 15 179 0.0 6.4 0.00 0.00 0.00 46 1014.0
20260505220304 15 176 0.0 6.4 0.00 0.00 0.00 47 1014.0
20260505220204 15 176 0.0 6.4 0.00 0.00 0.00 46 1014.0
20260505220104 15 177 0.0 6.4 0.00 0.00 0.00 46 1013.8
20260505220004 15 180 1.6 6.4 0.00 0.00 0.00 46 1013.9
20260505215925 15 183 0.0 6.4 0.00 0.00 0.00 46 1013.9
20260505215825 15 183 0.0 6.4 0.00 0.00 0.00 46 1014.2
20260505215725 15 177 0.0 6.4 0.00 0.00 0.00 46 1013.9
20260505215604 15 173 0.0 6.4 0.00 0.00 0.00 46 1013.9
20260505215504 16 173 0.0 6.4 0.00 0.00 0.00 46 1013.8
20260505215404 16 173 0.0 6.4 0.00 0.00 0.00 46 1014.1
20260505215325 16 174 0.0 6.4 0.00 0.00 0.00 46 1013.9
20260505215204 16 175 0.0 6.4 0.00 0.00 0.00 46 1013.9
20260505215104 16 175 0.0 6.4 0.00 0.00 0.00 46 1013.9
20260505215004 16 170 0.0 6.4 0.00 0.00 0.00 46 1014.1
20260505214904 16 174 0.0 6.4 0.00 0.00 0.00 46 1014.1
20260505214804 16 174 0.0 6.4 0.00 0.00 0.00 46 1014.0
20260505214725 16 182 0.0 4.8 0.00 0.00 0.00 46 1013.9
20260505214625 16 175 0.0 9.7 0.00 0.00 0.00 46 1013.9
20260505214504 16 171 0.0 9.7 0.00 0.00 0.00 46 1013.9
20260505214404 16 169 1.6 9.7 0.00 0.00 0.00 46 1013.8
20260505214304 16 169 1.6 9.7 0.00 0.00 0.00 46 1014.1
20260505214204 16 169 1.6 9.7 0.00 0.00 0.00 46 1013.8
20260505214104 16 171 1.6 9.7 0.00 0.00 0.00 46 1014.0
20260505214004 16 173 1.6 9.7 0.00 0.00 0.00 46 1013.9
20260505213904 16 171 1.6 9.7 0.00 0.00 0.00 45 1013.9
20260505213804 16 170 1.6 9.7 0.00 0.00 0.00 45 1014.0
20260505213704 16 169 1.6 9.7 0.00 0.00 0.00 46 1013.8
20260505213604 16 172 1.6 9.7 0.00 0.00 0.00 45 1013.9
20260505213504 16 173 1.6 9.7 0.00 0.00 0.00 45 1013.9
20260505213404 16 178 1.6 9.7 0.00 0.00 0.00 45 1014.0
20260505213325 16 179 1.6 9.7 0.00 0.00 0.00 45 1014.1
20260505213204 16 180 1.6 6.4 0.00 0.00 0.00 45 1014.1
20260505213104 16 177 1.6 6.4 0.00 0.00 0.00 46 1013.8
20260505213004 16 177 1.6 6.4 0.00 0.00 0.00 46 1014.1
20260505212904 16 178 1.6 6.4 0.00 0.00 0.00 46 1013.8
20260505212805 16 178 1.6 6.4 0.00 0.00 0.00 46 1014.0
20260505212704 16 177 1.6 6.4 0.00 0.00 0.00 46 1014.0
20260505212604 16 178 1.6 6.4 0.00 0.00 0.00 46 1013.9
20260505212504 16 178 1.6 6.4 0.00 0.00 0.00 46 1013.8
20260505212404 16 175 1.6 6.4 0.00 0.00 0.00 46 1014.0
20260505212325 16 175 1.6 6.4 0.00 0.00 0.00 46 1013.7
20260505212204 16 176 1.6 6.4 0.00 0.00 0.00 46 1014.0
20260505212104 16 176 1.6 6.4 0.00 0.00 0.00 46 1014.1
20260505212004 16 174 0.0 4.8 0.00 0.00 0.00 46 1013.9
20260505211904 16 173 0.0 4.8 0.00 0.00 0.00 46 1013.9
20260505211804 16 174 0.0 4.8 0.00 0.00 0.00 47 1014.0
20260505211725 16 174 0.0 4.8 0.00 0.00 0.00 47 1013.9
20260505211604 16 173 0.0 4.8 0.00 0.00 0.00 47 1013.9
20260505211504 16 173 0.0 4.8 0.00 0.00 0.00 47 1014.0
20260505211404 16 173 0.0 4.8 0.00 0.00 0.00 47 1014.0
20260505211304 16 174 0.0 4.8 0.00 0.00 0.00 47 1013.9
20260505211204 16 172 0.0 4.8 0.00 0.00 0.00 47 1013.9
20260505211104 16 180 0.0 6.4 0.00 0.00 0.00 47 1014.2
20260505211004 16 179 0.0 6.4 0.00 0.00 0.00 47 1014.2
20260505210904 16 178 0.0 6.4 0.00 0.00 0.00 47 1014.0
20260505210804 16 178 0.0 6.4 0.00 0.00 0.00 47 1014.0
20260505210704 16 179 0.0 6.4 0.00 0.00 0.00 47 1013.9
20260505210604 16 176 0.0 6.4 0.00 0.00 0.00 47 1014.0
20260505210504 16 172 0.0 6.4 0.00 0.00 0.00 47 1013.8
20260505210404 16 172 0.0 6.4 0.00 0.00 0.00 47 1013.9
20260505210304 16 172 0.0 6.4 0.00 0.00 0.00 47 1013.9
20260505210204 16 170 0.0 6.4 0.00 0.00 0.00 47 1013.9
20260505210104 16 167 0.0 6.4 0.00 0.00 0.00 47 1013.9
20260505210004 16 164 0.0 6.4 0.00 0.00 0.00 47 1013.8
20260505205904 16 165 0.0 6.4 0.00 0.00 0.00 47 1013.9
20260505205804 16 165 0.0 6.4 0.00 0.00 0.00 47 1013.9
20260505205725 16 173 0.0 6.4 0.00 0.00 0.00 47 1014.0
20260505205625 16 173 0.0 6.4 0.00 0.00 0.00 47 1014.0
20260505205525 16 178 0.0 6.4 0.00 0.00 0.00 47 1013.6
20260505205405 16 176 0.0 6.4 0.00 0.00 0.00 47 1014.0
20260505205326 16 176 0.0 6.4 0.00 0.00 0.00 47 1013.9
20260505205225 16 176 0.0 6.4 0.00 0.00 0.00 47 1013.7
20260505205104 16 174 0.0 6.4 0.00 0.00 0.00 47 1014.0
20260505205004 16 174 0.0 6.4 0.00 0.00 0.00 46 1013.9
20260505204904 16 174 0.0 6.4 0.00 0.00 0.00 46 1013.8
20260505204804 16 175 0.0 6.4 0.00 0.00 0.00 46 1013.8
20260505204704 16 171 0.0 6.4 0.00 0.00 0.00 46 1013.9
20260505204604 16 169 0.0 4.8 0.00 0.00 0.00 46 1013.8
20260505204504 16 169 0.0 4.8 0.00 0.00 0.00 46 1013.9
20260505204404 16 170 0.0 4.8 0.00 0.00 0.00 46 1013.8
20260505204304 16 171 0.0 4.8 0.00 0.00 0.00 46 1013.8
20260505204204 16 173 0.0 4.8 0.00 0.00 0.00 46 1013.8
20260505204104 16 173 0.0 4.8 0.00 0.00 0.00 46 1013.7
20260505204004 16 173 0.0 4.8 0.00 0.00 0.00 46 1013.8
20260505203904 16 173 0.0 4.8 0.00 0.00 0.00 46 1013.7
20260505203804 16 172 1.6 6.4 0.00 0.00 0.00 46 1014.0
20260505203704 16 171 1.6 9.7 0.00 0.00 0.00 45 1013.8
20260505203604 16 172 1.6 9.7 0.00 0.00 0.00 45 1013.6
20260505203504 16 173 1.6 9.7 0.00 0.00 0.00 45 1013.8
20260505203404 17 175 1.6 9.7 0.00 0.00 0.00 45 1013.9
20260505203304 17 176 1.6 9.7 0.00 0.00 0.00 45 1014.0
20260505203204 17 177 1.6 9.7 0.00 0.00 0.00 45 1013.6
20260505203104 17 177 1.6 9.7 0.00 0.00 0.00 45 1013.8
20260505203004 17 178 1.6 9.7 0.00 0.00 0.00 45 1013.7
20260505202925 17 177 1.6 9.7 0.00 0.00 0.00 45 1014.0
20260505202804 17 178 1.6 9.7 0.00 0.00 0.00 45 1013.5
20260505202704 17 180 1.6 9.7 0.00 0.00 0.00 44 1013.6
20260505202604 17 180 0.0 9.7 0.00 0.00 0.00 45 1014.0
20260505202504 17 179 0.0 9.7 0.00 0.00 0.00 45 1013.8
20260505202404 17 177 0.0 9.7 0.00 0.00 0.00 45 1013.7
20260505202306 17 176 0.0 6.4 0.00 0.00 0.00 45 1013.7
20260505202204 17 172 0.0 4.8 0.00 0.00 0.00 44 1013.8
20260505202104 17 171 0.0 4.8 0.00 0.00 0.00 44 1013.7
20260505202004 17 173 0.0 4.8 0.00 0.00 0.00 45 1013.5
20260505201904 17 178 0.0 3.2 0.00 0.00 0.00 45 1013.7
20260505201825 17 178 0.0 3.2 0.00 0.00 0.00 45 1013.6
20260505201704 17 178 0.0 3.2 0.00 0.00 0.00 44 1013.7
20260505201604 17 177 0.0 4.8 0.00 0.00 0.00 44 1013.7
20260505201504 17 173 0.0 9.7 0.00 0.00 0.00 44 1013.7
20260505201404 17 174 0.0 9.7 0.00 0.00 0.00 44 1013.7
20260505201304 17 176 0.0 9.7 0.00 0.00 0.00 44 1013.6
20260505201204 17 176 1.6 9.7 0.00 0.00 0.00 44 1013.8
20260505201104 17 174 1.6 9.7 0.00 0.00 0.00 43 1013.7
20260505201004 17 174 1.6 9.7 0.00 0.00 0.00 43 1013.7
20260505200904 17 173 0.0 9.7 0.00 0.00 0.00 43 1013.7
20260505200804 17 172 1.6 9.7 0.00 0.00 0.00 43 1013.6
20260505200704 17 173 0.0 9.7 0.00 0.00 0.00 43 1013.7
20260505200604 17 173 0.0 9.7 0.00 0.00 0.00 43 1013.7
20260505200504 17 177 0.0 4.8 0.00 0.00 0.00 43 1013.8
20260505200404 17 176 0.0 4.8 0.00 0.00 0.00 43 1013.6
20260505200325 17 173 0.0 3.2 0.00 0.00 0.00 43 1013.6
20260505200204 17 173 0.0 3.2 0.00 0.00 0.00 43 1013.8
20260505200126 17 175 0.0 3.2 0.00 0.00 0.00 43 1013.4
20260505200004 17 174 0.0 3.2 0.00 0.00 0.00 43 1013.5
20260505195904 17 175 0.0 3.2 0.00 0.00 0.00 43 1013.6
20260505195804 17 175 0.0 3.2 0.00 0.00 0.00 43 1013.6
20260505195704 17 175 0.0 3.2 0.00 0.00 0.00 43 1013.7
20260505195604 17 175 0.0 3.2 0.00 0.00 0.00 43 1013.6
20260505195504 17 175 0.0 3.2 0.00 0.00 0.00 44 1013.6
20260505195404 17 177 0.0 3.2 0.00 0.00 0.00 43 1013.5
20260505195305 17 178 0.0 3.2 0.00 0.00 0.00 43 1013.7
20260505195204 16 178 0.0 3.2 0.00 0.00 0.00 43 1013.6
20260505195104 16 190 0.0 1.6 0.00 0.00 0.00 44 1013.4
20260505195025 16 190 0.0 1.6 0.00 0.00 0.00 44 1013.5
20260505194904 16 0 0.0 0.0 0.00 0.00 0.00 44 1013.5
20260505194804 16 156 0.0 1.6 0.00 0.00 0.00 44 1013.6
20260505194704 16 156 0.0 1.6 0.00 0.00 0.00 44 1013.8
20260505194604 16 156 0.0 1.6 0.00 0.00 0.00 44 1013.5
20260505194504 16 156 0.0 1.6 0.00 0.00 0.00 44 1013.4
20260505194404 17 156 0.0 1.6 0.00 0.00 0.00 44 1013.6
20260505194304 17 156 0.0 1.6 0.00 0.00 0.00 44 1013.5
20260505194204 17 156 0.0 1.6 0.00 0.00 0.00 44 1013.4
20260505194104 17 159 0.0 1.6 0.00 0.00 0.00 44 1013.4
20260505194025 17 174 0.0 1.6 0.00 0.00 0.00 44 1013.4
20260505193904 17 174 0.0 1.6 0.00 0.00 0.00 43 1013.5
20260505193804 17 183 0.0 1.6 0.00 0.00 0.00 44 1013.4
20260505193704 17 183 0.0 1.6 0.00 0.00 0.00 43 1013.3
20260505193604 17 183 0.0 1.6 0.00 0.00 0.00 43 1013.1
20260505193504 17 183 0.0 1.6 0.00 0.00 0.00 44 1013.4
20260505193404 17 183 0.0 1.6 0.00 0.00 0.00 43 1013.4
20260505193325 17 183 0.0 1.6 0.00 0.00 0.00 43 1013.3
20260505193225 17 183 0.0 1.6 0.00 0.00 0.00 43 1013.4
20260505193104 17 190 0.0 1.6 0.00 0.00 0.00 43 1013.3
20260505193004 17 0 0.0 0.0 0.00 0.00 0.00 44 1013.3
20260505192904 16 0 0.0 0.0 0.00 0.00 0.00 44 1013.2
20260505192804 16 0 0.0 0.0 0.00 0.00 0.00 44 1013.1
20260505192704 16 0 0.0 0.0 0.00 0.00 0.00 45 1013.3
20260505192604 16 0 0.0 0.0 0.00 0.00 0.00 45 1013.4
20260505192525 16 0 0.0 0.0 0.00 0.00 0.00 46 1013.4
20260505192425 16 0 0.0 0.0 0.00 0.00 0.00 46 1013.2
20260505192305 16 0 0.0 0.0 0.00 0.00 0.00 47 1013.3
20260505192204 16 0 0.0 0.0 0.00 0.00 0.00 48 1013.3
20260505192104 15 0 0.0 0.0 0.00 0.00 0.00 49 1013.3
20260505192025 15 0 0.0 0.0 0.00 0.00 0.00 50 1013.2
20260505191904 16 0 0.0 0.0 0.00 0.00 0.00 52 1013.5
20260505191804 16 0 0.0 0.0 0.00 0.00 0.00 51 1013.2
20260505191725 16 0 0.0 0.0 0.00 0.00 0.00 51 1013.3
20260505191625 16 0 0.0 0.0 0.00 0.00 0.00 52 1013.3
20260505191504 16 0 0.0 0.0 0.00 0.00 0.00 52 1013.4
20260505191425 16 0 0.0 0.0 0.00 0.00 0.00 52 1013.3
20260505191304 16 0 0.0 0.0 0.00 0.00 0.00 51 1013.2
20260505191225 16 0 0.0 0.0 0.00 0.00 0.00 51 1013.4
20260505191104 16 0 0.0 0.0 0.00 0.00 0.00 51 1013.4
20260505191004 16 0 0.0 0.0 0.00 0.00 0.00 51 1013.4
20260505190925 16 0 0.0 0.0 0.00 0.00 0.00 50 1013.4
20260505190804 16 0 0.0 0.0 0.00 0.00 0.00 49 1013.3
20260505190704 16 0 0.0 0.0 0.00 0.00 0.00 50 1013.3
20260505190604 16 0 0.0 0.0 0.00 0.00 0.00 50 1013.2
20260505190525 16 0 0.0 0.0 0.00 0.00 0.00 50 1013.4
20260505190405 16 0 0.0 0.0 0.00 0.00 0.00 50 1013.2
20260505190304 16 0 0.0 0.0 0.00 0.00 0.00 51 1013.2
20260505190204 16 0 0.0 0.0 0.00 0.00 0.00 51 1013.6
20260505190104 16 0 0.0 0.0 0.00 0.00 0.00 51 1013.2
20260505190004 16 0 0.0 0.0 0.00 0.00 0.00 51 1013.3
20260505185904 16 0 0.0 0.0 0.00 0.00 0.00 51 1013.2
20260505185804 16 0 0.0 0.0 0.00 0.00 0.00 51 1013.1
20260505185725 16 0 0.0 0.0 0.00 0.00 0.00 50 1013.4
20260505185604 16 0 0.0 0.0 0.00 0.00 0.00 49 1013.2
20260505185525 16 0 0.0 0.0 0.00 0.00 0.00 49 1013.1
20260505185404 16 0 0.0 0.0 0.00 0.00 0.00 48 1013.3
20260505185305 16 0 0.0 0.0 0.00 0.00 0.00 49 1013.1
20260505185204 16 0 0.0 0.0 0.00 0.00 0.00 48 1013.3
20260505185104 16 0 0.0 0.0 0.00 0.00 0.00 47 1013.0
20260505185004 16 0 0.0 0.0 0.00 0.00 0.00 47 1013.1
20260505184925 16 0 0.0 0.0 0.00 0.00 0.00 47 1013.4
20260505184825 16 0 0.0 0.0 0.00 0.00 0.00 47 1013.2
20260505184704 16 0 0.0 0.0 0.00 0.00 0.00 47 1013.2
20260505184604 16 0 0.0 0.0 0.00 0.00 0.00 49 1013.2
20260505184504 16 0 0.0 0.0 0.00 0.00 0.00 49 1013.2
20260505184425 16 0 0.0 0.0 0.00 0.00 0.00 49 1013.0
20260505184304 16 0 0.0 0.0 0.00 0.00 0.00 49 1013.0
20260505184204 16 0 0.0 0.0 0.00 0.00 0.00 49 1013.4
20260505184125 16 0 0.0 0.0 0.00 0.00 0.00 50 1013.1
20260505184005 16 0 0.0 0.0 0.00 0.00 0.00 49 1013.1
20260505183904 16 0 0.0 0.0 0.00 0.00 0.00 48 1013.2
20260505183804 16 0 0.0 0.0 0.00 0.00 0.00 49 1013.2
20260505183704 16 0 0.0 0.0 0.00 0.00 0.00 49 1013.3
20260505183604 16 0 0.0 0.0 0.00 0.00 0.00 48 1013.2
20260505183504 16 0 0.0 0.0 0.00 0.00 0.00 48 1013.0
20260505183405 17 0 0.0 0.0 0.00 0.00 0.00 49 1013.1
20260505183304 17 0 0.0 0.0 0.00 0.00 0.00 48 1013.1
20260505183204 17 0 0.0 0.0 0.00 0.00 0.00 47 1013.2
20260505183104 17 0 0.0 0.0 0.00 0.00 0.00 46 1013.1
20260505183004 17 0 0.0 0.0 0.00 0.00 0.00 46 1013.0
20260505182904 17 0 0.0 0.0 0.00 0.00 0.00 47 1013.1
20260505182804 17 0 0.0 0.0 0.00 0.00 0.00 46 1013.2
20260505182704 17 0 0.0 0.0 0.00 0.00 0.00 46 1013.1
20260505182604 17 0 0.0 0.0 0.00 0.00 0.00 46 1012.8
20260505182504 17 0 0.0 0.0 0.00 0.00 0.00 47 1013.0
20260505182404 17 0 0.0 0.0 0.00 0.00 0.00 46 1012.9
20260505182306 17 0 0.0 0.0 0.00 0.00 0.00 47 1013.1
20260505182204 17 0 0.0 0.0 0.00 0.00 0.00 47 1013.1
20260505182104 17 0 0.0 0.0 0.00 0.00 0.00 48 1013.1
20260505182004 17 0 0.0 0.0 0.00 0.00 0.00 47 1013.0
20260505181904 17 0 0.0 0.0 0.00 0.00 0.00 47 1013.2
20260505181825 17 0 0.0 0.0 0.00 0.00 0.00 47 1012.9
20260505181704 18 0 0.0 0.0 0.00 0.00 0.00 46 1013.0
20260505181625 18 0 0.0 0.0 0.00 0.00 0.00 45 1013.0
20260505181504 18 0 0.0 0.0 0.00 0.00 0.00 44 1013.0
20260505181404 18 0 0.0 0.0 0.00 0.00 0.00 43 1013.0
20260505181304 18 0 0.0 0.0 0.00 0.00 0.00 43 1012.9
20260505181204 18 0 0.0 0.0 0.00 0.00 0.00 43 1013.0
20260505181104 18 0 0.0 0.0 0.00 0.00 0.00 41 1013.0
20260505181004 18 0 0.0 0.0 0.00 0.00 0.00 43 1013.1
20260505180904 18 0 0.0 0.0 0.00 0.00 0.00 43 1013.0
20260505180804 18 0 0.0 0.0 0.00 0.00 0.00 44 1013.0
20260505180704 18 0 0.0 0.0 0.00 0.00 0.00 43 1013.2
20260505180604 17 0 0.0 0.0 0.00 0.00 0.00 44 1013.0
20260505180504 17 0 0.0 0.0 0.00 0.00 0.00 44 1012.9
20260505180404 17 0 0.0 0.0 0.00 0.00 0.00 44 1013.0
20260505180304 17 0 0.0 0.0 0.00 0.00 0.00 44 1013.0
20260505180204 17 0 0.0 0.0 0.00 0.00 0.00 43 1013.1
20260505180104 17 0 0.0 0.0 0.00 0.00 0.00 43 1013.0
20260505180004 17 0 0.0 0.0 0.00 0.00 0.00 43 1013.0
20260505175904 17 0 0.0 0.0 0.00 0.00 0.00 45 1012.9
20260505175804 17 0 0.0 0.0 0.00 0.00 0.00 44 1012.8
20260505175725 17 0 0.0 0.0 0.00 0.00 0.00 44 1013.0
20260505175604 17 0 0.0 0.0 0.00 0.00 0.00 44 1013.0
20260505175504 17 0 0.0 0.0 0.00 0.00 0.00 45 1012.9
20260505175404 17 0 0.0 0.0 0.00 0.00 0.00 46 1013.0
20260505175325 17 0 0.0 0.0 0.00 0.00 0.00 46 1012.8
20260505175204 17 0 0.0 0.0 0.00 0.00 0.00 45 1013.1
20260505175104 17 0 0.0 0.0 0.00 0.00 0.00 46 1013.0
20260505175004 17 0 0.0 0.0 0.00 0.00 0.00 46 1013.0
20260505174904 17 0 0.0 0.0 0.00 0.00 0.00 46 1013.0
20260505174804 17 0 0.0 0.0 0.00 0.00 0.00 46 1013.0
20260505174704 17 0 0.0 0.0 0.00 0.00 0.00 46 1012.7
20260505174604 17 0 0.0 0.0 0.00 0.00 0.00 47 1012.7
20260505174504 17 0 0.0 0.0 0.00 0.00 0.00 47 1012.9
20260505174425 17 0 0.0 0.0 0.00 0.00 0.00 48 1012.8
20260505174304 18 0 0.0 0.0 0.00 0.00 0.00 48 1013.1
20260505174204 18 0 0.0 0.0 0.00 0.00 0.00 48 1012.9
20260505174125 18 0 0.0 0.0 0.00 0.00 0.00 48 1012.9
20260505174025 18 0 0.0 0.0 0.00 0.00 0.00 48 1012.9
20260505173904 18 0 0.0 0.0 0.00 0.00 0.00 48 1012.8
20260505173804 18 0 0.0 0.0 0.00 0.00 0.00 48 1012.7
20260505173725 18 0 0.0 0.0 0.00 0.00 0.00 48 1012.7
20260505173604 18 0 0.0 0.0 0.00 0.00 0.00 48 1012.6
20260505173504 18 0 0.0 0.0 0.00 0.00 0.00 48 1012.7
20260505173404 18 0 0.0 0.0 0.00 0.00 0.00 48 1012.8
20260505173304 18 0 0.0 0.0 0.00 0.00 0.00 48 1012.6
20260505173204 18 0 0.0 0.0 0.00 0.00 0.00 48 1012.7
20260505173104 18 0 0.0 0.0 0.00 0.00 0.00 48 1012.7
20260505173004 18 0 0.0 0.0 0.00 0.00 0.00 47 1013.0
20260505172904 18 0 0.0 0.0 0.00 0.00 0.00 47 1012.7
20260505172825 18 0 0.0 0.0 0.00 0.00 0.00 47 1012.8
20260505172704 18 0 0.0 0.0 0.00 0.00 0.00 47 1012.9
20260505172604 19 0 0.0 0.0 0.00 0.00 0.00 46 1012.6
20260505172504 19 0 0.0 0.0 0.00 0.00 0.00 46 1012.8
20260505172404 19 0 0.0 0.0 0.00 0.00 0.00 45 1012.6
20260505172325 19 0 0.0 0.0 0.00 0.00 0.00 45 1012.8
20260505172204 19 0 0.0 0.0 0.00 0.00 0.00 44 1012.6
20260505172104 19 0 0.0 0.0 0.00 0.00 0.00 44 1012.8
20260505172004 20 0 0.0 0.0 0.00 0.00 0.00 44 1012.6
20260505171925 20 0 0.0 0.0 0.00 0.00 0.00 44 1012.7
20260505171804 20 0 0.0 0.0 0.00 0.00 0.00 43 1012.6
20260505171725 20 0 0.0 0.0 0.00 0.00 0.00 44 1012.7
20260505171604 20 0 0.0 0.0 0.00 0.00 0.00 42 1012.8
20260505171504 20 0 0.0 0.0 0.00 0.00 0.00 42 1012.8
20260505171404 20 0 0.0 0.0 0.00 0.00 0.00 42 1012.6
20260505171304 20 0 0.0 0.0 0.00 0.00 0.00 42 1012.6
20260505171225 20 0 0.0 0.0 0.00 0.00 0.00 41 1012.6
20260505171104 20 0 0.0 0.0 0.00 0.00 0.00 41 1012.5
20260505171004 20 0 0.0 0.0 0.00 0.00 0.00 41 1012.5
20260505170904 21 0 0.0 0.0 0.00 0.00 0.00 40 1012.7
20260505170825 21 0 0.0 0.0 0.00 0.00 0.00 40 1012.6
20260505170705 21 0 0.0 0.0 0.00 0.00 0.00 39 1012.8
20260505170604 21 0 0.0 0.0 0.00 0.00 0.00 40 1012.5
20260505170504 21 0 0.0 0.0 0.00 0.00 0.00 38 1012.6
20260505170404 21 0 0.0 0.0 0.00 0.00 0.00 37 1012.6
20260505170304 21 0 0.0 0.0 0.00 0.00 0.00 37 1012.7
20260505170225 21 0 0.0 0.0 0.00 0.00 0.00 36 1012.6
20260505170104 22 0 0.0 0.0 0.00 0.00 0.00 35 1012.5
20260505170004 22 0 0.0 0.0 0.00 0.00 0.00 35 1012.7
20260505165904 22 0 0.0 0.0 0.00 0.00 0.00 35 1012.7
20260505165825 22 0 0.0 0.0 0.00 0.00 0.00 36 1012.7
20260505165704 22 0 0.0 0.0 0.00 0.00 0.00 34 1012.5
20260505165625 22 0 0.0 0.0 0.00 0.00 0.00 33 1012.7
20260505165504 22 0 0.0 0.0 0.00 0.00 0.00 34 1012.6
20260505165404 22 0 0.0 0.0 0.00 0.00 0.00 32 1012.8
20260505165306 23 0 0.0 0.0 0.00 0.00 0.00 32 1012.6
20260505165225 23 0 0.0 0.0 0.00 0.00 0.00 31 1012.9
20260505165125 23 0 0.0 0.0 0.00 0.00 0.00 30 1012.7
20260505165004 23 0 0.0 0.0 0.00 0.00 0.00 30 1012.9
20260505164904 23 0 0.0 0.0 0.00 0.00 0.00 28 1012.7
20260505164804 23 0 0.0 0.0 0.00 0.00 0.00 30 1012.6
20260505164704 23 0 0.0 0.0 0.00 0.00 0.00 27 1012.8
20260505164604 23 0 0.0 0.0 0.00 0.00 0.00 29 1012.6
20260505164504 24 0 0.0 0.0 0.00 0.00 0.00 29 1012.7
20260505164404 24 0 0.0 0.0 0.00 0.00 0.00 28 1012.8